Wetterdaten: Montag, 27.06.2022
Datum Zeit Temp. Aussen Temp. o. S. Temp +5cm Feuchte Auss Luftdruck Regen Sonnenschein Regendauer Solar Windben Empfang
27.06.2022 00:00 18,4 C 17,8 C 14,4 C 81 % 1015,3 hPa 0,0 l/m 0 min 0 min 0 W/m 0,0 km/h (0 Bft) 100,00 %
27.06.2022 00:02 18,4 C 17,8 C 14,4 C 81 % 1015,3 hPa 0,0 l/m 0 min 0 min 0 W/m 0,0 km/h (0 Bft) 97,22 %
27.06.2022 00:04 18,4 C 17,8 C 14,4 C 81 % 1015,2 hPa 0,0 l/m 0 min 0 min 0 W/m 0,0 km/h (0 Bft) 100,00 %
27.06.2022 00:10 18,5 C 17,8 C 13,9 C 82 % 1015,0 hPa 0,0 l/m 0 min 0 min 0 W/m 0,0 km/h (0 Bft) 99,29 %
27.06.2022 00:12 18,4 C 17,8 C 13,9 C 82 % 1015,1 hPa 0,0 l/m 0 min 0 min 0 W/m 0,0 km/h (0 Bft) 100,00 %
27.06.2022 00:14 18,4 C 17,8 C 14,4 C 82 % 1015,1 hPa 0,0 l/m 0 min 0 min 0 W/m 0,0 km/h (0 Bft) 100,00 %
27.06.2022 00:16 18,4 C 17,8 C 13,9 C 82 % 1015,2 hPa 0,0 l/m 0 min 0 min 0 W/m 0,0 km/h (0 Bft) 97,87 %
27.06.2022 00:18 18,4 C 17,8 C 13,9 C 82 % 1015,3 hPa 0,0 l/m 0 min 0 min 0 W/m 0,0 km/h (0 Bft) 100,00 %
27.06.2022 00:20 18,4 C 17,2 C 13,9 C 82 % 1015,4 hPa 0,0 l/m 0 min 0 min 0 W/m 0,0 km/h (0 Bft) 97,87 %
27.06.2022 00:22 18,4 C 17,2 C 13,9 C 82 % 1015,5 hPa 0,0 l/m 0 min 0 min 0 W/m 0,0 km/h (0 Bft) 100,00 %
27.06.2022 00:24 18,4 C 17,2 C 13,9 C 82 % 1015,5 hPa 0,0 l/m 0 min 0 min 0 W/m 0,0 km/h (0 Bft) 100,00 %
27.06.2022 00:26 18,4 C 17,2 C 13,9 C 82 % 1015,4 hPa 0,0 l/m 0 min 0 min 0 W/m 0,0 km/h (0 Bft) 100,00 %
27.06.2022 00:28 18,4 C 17,2 C 13,9 C 83 % 1015,4 hPa 0,0 l/m 0 min 0 min 0 W/m 0,0 km/h (0 Bft) 100,00 %
27.06.2022 00:30 18,4 C 17,2 C 13,9 C 83 % 1015,4 hPa 0,0 l/m 0 min 0 min 0 W/m 0,0 km/h (0 Bft) 100,00 %
27.06.2022 00:32 18,5 C 17,2 C 13,9 C 84 % 1015,5 hPa 0,0 l/m 0 min 0 min 0 W/m 0,0 km/h (0 Bft) 100,00 %
27.06.2022 00:34 18,5 C 17,2 C 13,9 C 84 % 1015,4 hPa 0,0 l/m 0 min 0 min 0 W/m 0,0 km/h (0 Bft) 97,87 %
27.06.2022 00:36 18,5 C 17,2 C 13,9 C 84 % 1015,1 hPa 0,0 l/m 0 min 0 min 0 W/m 0,0 km/h (0 Bft) 100,00 %
27.06.2022 00:38 18,4 C 17,2 C 13,9 C 84 % 1015,0 hPa 0,0 l/m 0 min 0 min 0 W/m 0,0 km/h (0 Bft) 100,00 %
27.06.2022 00:40 18,4 C 17,2 C 13,9 C 84 % 1014,8 hPa 0,0 l/m 0 min 0 min 0 W/m 0,0 km/h (0 Bft) 100,00 %
27.06.2022 00:42 18,4 C 17,2 C 13,9 C 84 % 1014,6 hPa 0,0 l/m 0 min 0 min 0 W/m 0,0 km/h (0 Bft) 100,00 %
27.06.2022 00:44 18,4 C 17,2 C 13,9 C 84 % 1014,5 hPa 0,0 l/m 0 min 0 min 0 W/m 0,0 km/h (0 Bft) 100,00 %
27.06.2022 00:46 18,4 C 17,2 C 13,9 C 84 % 1014,6 hPa 0,0 l/m 0 min 0 min 0 W/m 0,0 km/h (0 Bft) 100,00 %
27.06.2022 00:48 18,3 C 17,2 C 13,9 C 84 % 1014,7 hPa 0,0 l/m 0 min 2 min 0 W/m 0,0 km/h (0 Bft) 97,83 %
27.06.2022 00:50 18,3 C 17,2 C 13,9 C 84 % 1014,8 hPa 0,0 l/m 0 min 2 min 0 W/m 0,0 km/h (0 Bft) 100,00 %
27.06.2022 00:52 18,3 C 17,2 C 13,9 C 84 % 1014,9 hPa 0,0 l/m 0 min 2 min 0 W/m 6,4 km/h (2 Bft) 100,00 %
27.06.2022 00:54 18,3 C 17,2 C 13,9 C 84 % 1015,0 hPa 0,0 l/m 0 min 0 min 0 W/m 9,7 km/h (2 Bft) 97,87 %
27.06.2022 00:56 18,3 C 17,2 C 13,9 C 84 % 1015,1 hPa 0,0 l/m 0 min 0 min 0 W/m 0,0 km/h (0 Bft) 97,87 %
27.06.2022 00:58 18,3 C 17,2 C 13,9 C 84 % 1015,2 hPa 0,0 l/m 0 min 0 min 0 W/m 3,2 km/h (1 Bft) 95,74 %
27.06.2022 01:00 18,3 C 17,2 C 13,9 C 84 % 1015,2 hPa 0,0 l/m 0 min 0 min 0 W/m 0,0 km/h (0 Bft) 97,83 %
27.06.2022 01:02 18,3 C 17,2 C 13,9 C 85 % 1015,2 hPa 0,0 l/m 0 min 0 min 0 W/m 0,0 km/h (0 Bft) 95,74 %
27.06.2022 01:04 18,4 C 17,2 C 13,9 C 85 % 1015,1 hPa 0,0 l/m 0 min 0 min 0 W/m 0,0 km/h (0 Bft) 95,74 %
27.06.2022 01:06 18,4 C 17,2 C 13,9 C 85 % 1015,1 hPa 0,0 l/m 0 min 0 min 0 W/m 3,2 km/h (1 Bft) 95,74 %
27.06.2022 01:08 18,4 C 17,2 C 13,9 C 85 % 1015,0 hPa 0,0 l/m 0 min 0 min 0 W/m 3,2 km/h (1 Bft) 95,74 %
27.06.2022 01:10 18,4 C 17,2 C 13,9 C 85 % 1015,0 hPa 0,0 l/m 0 min 0 min 0 W/m 0,0 km/h (0 Bft) 95,74 %
27.06.2022 01:12 18,4 C 17,2 C 13,9 C 86 % 1015,1 hPa 0,0 l/m 0 min 0 min 0 W/m 3,2 km/h (1 Bft) 95,65 %
27.06.2022 01:14 18,4 C 17,2 C 13,9 C 86 % 1015,1 hPa 0,0 l/m 0 min 0 min 0 W/m 3,2 km/h (1 Bft) 97,87 %
27.06.2022 01:16 18,4 C 17,2 C 13,9 C 86 % 1015,1 hPa 0,0 l/m 0 min 0 min 0 W/m 0,0 km/h (0 Bft) 95,74 %
27.06.2022 01:18 18,4 C 17,2 C 13,9 C 86 % 1015,1 hPa 0,0 l/m 0 min 0 min 0 W/m 0,0 km/h (0 Bft) 95,74 %
27.06.2022 01:20 18,4 C 17,2 C 13,9 C 86 % 1015,1 hPa 0,0 l/m 0 min 2 min 0 W/m 0,0 km/h (0 Bft) 97,87 %
27.06.2022 01:22 18,3 C 17,2 C 13,9 C 86 % 1015,1 hPa 0,0 l/m 0 min 0 min 0 W/m 0,0 km/h (0 Bft) 95,74 %
27.06.2022 01:24 18,3 C 17,2 C 13,9 C 86 % 1015,0 hPa 0,0 l/m 0 min 0 min 0 W/m 0,0 km/h (0 Bft) 95,65 %
27.06.2022 01:26 18,3 C 17,2 C 13,9 C 86 % 1015,1 hPa 0,0 l/m 0 min 0 min 0 W/m 0,0 km/h (0 Bft) 93,62 %
27.06.2022 01:28 18,3 C 17,2 C 13,9 C 86 % 1015,1 hPa 0,0 l/m 0 min 0 min 0 W/m 0,0 km/h (0 Bft) 97,87 %
27.06.2022 01:30 18,3 C 17,2 C 13,9 C 86 % 1015,1 hPa 0,0 l/m 0 min 0 min 0 W/m 0,0 km/h (0 Bft) 97,87 %
27.06.2022 01:32 18,3 C 17,2 C 13,9 C 87 % 1015,1 hPa 0,0 l/m 0 min 0 min 0 W/m 3,2 km/h (1 Bft) 97,87 %
27.06.2022 01:34 18,3 C 17,2 C 13,9 C 87 % 1015,0 hPa 0,0 l/m 0 min 0 min 0 W/m 0,0 km/h (0 Bft) 97,87 %
27.06.2022 01:36 18,3 C 17,2 C 13,9 C 87 % 1015,0 hPa 0,0 l/m 0 min 0 min 0 W/m 0,0 km/h (0 Bft) 97,83 %
27.06.2022 01:38 18,3 C 17,2 C 13,9 C 87 % 1015,1 hPa 0,0 l/m 0 min 0 min 0 W/m 3,2 km/h (1 Bft) 97,87 %
27.06.2022 01:40 18,3 C 17,2 C 13,9 C 87 % 1015,0 hPa 0,0 l/m 0 min 0 min 0 W/m 3,2 km/h (1 Bft) 97,87 %
27.06.2022 01:42 18,3 C 17,2 C 13,9 C 87 % 1015,0 hPa 0,0 l/m 0 min 0 min 0 W/m 0,0 km/h (0 Bft) 95,74 %
27.06.2022 01:44 18,3 C 17,2 C 13,9 C 87 % 1015,0 hPa 0,0 l/m 0 min 0 min 0 W/m 3,2 km/h (1 Bft) 97,87 %
27.06.2022 01:46 18,2 C 17,2 C 13,9 C 87 % 1015,0 hPa 0,0 l/m 0 min 0 min 0 W/m 0,0 km/h (0 Bft) 95,74 %
27.06.2022 01:48 18,2 C 17,2 C 13,9 C 87 % 1015,0 hPa 0,0 l/m 0 min 0 min 0 W/m 0,0 km/h (0 Bft) 95,65 %
27.06.2022 01:50 18,2 C 17,2 C 13,9 C 87 % 1015,1 hPa 0,0 l/m 0 min 0 min 0 W/m 3,2 km/h (1 Bft) 95,74 %
27.06.2022 01:52 18,2 C 17,2 C 13,9 C 87 % 1015,1 hPa 0,0 l/m 0 min 0 min 0 W/m 3,2 km/h (1 Bft) 97,87 %
27.06.2022 01:54 18,2 C 17,2 C 13,9 C 87 % 1015,0 hPa 0,0 l/m 0 min 0 min 0 W/m 3,2 km/h (1 Bft) 95,74 %
27.06.2022 01:56 18,2 C 17,2 C 13,9 C 88 % 1014,8 hPa 0,0 l/m 0 min 0 min 0 W/m 0,0 km/h (0 Bft) 97,87 %
27.06.2022 01:58 18,2 C 17,2 C 13,9 C 87 % 1014,9 hPa 0,0 l/m 0 min 0 min 0 W/m 3,2 km/h (1 Bft) 97,87 %
27.06.2022 02:00 18,2 C 17,2 C 13,9 C 88 % 1015,2 hPa 0,0 l/m 0 min 0 min 0 W/m 0,0 km/h (0 Bft) 97,83 %
27.06.2022 02:02 18,2 C 17,2 C 13,9 C 88 % 1015,4 hPa 0,0 l/m 0 min 0 min 0 W/m 0,0 km/h (0 Bft) 97,87 %
27.06.2022 02:04 18,2 C 17,2 C 13,9 C 88 % 1015,4 hPa 0,0 l/m 0 min 0 min 0 W/m 0,0 km/h (0 Bft) 97,87 %
27.06.2022 02:06 18,2 C 17,2 C 13,9 C 88 % 1015,4 hPa 0,0 l/m 0 min 0 min 0 W/m 0,0 km/h (0 Bft) 97,87 %
27.06.2022 02:08 18,2 C 17,2 C 13,9 C 88 % 1015,4 hPa 0,0 l/m 0 min 0 min 0 W/m 0,0 km/h (0 Bft) 97,87 %
27.06.2022 02:10 18,2 C 17,2 C 13,9 C 88 % 1015,4 hPa 0,0 l/m 0 min 0 min 0 W/m 0,0 km/h (0 Bft) 97,83 %
27.06.2022 02:12 18,2 C 17,2 C 13,9 C 88 % 1015,4 hPa 0,0 l/m 0 min 0 min 0 W/m 0,0 km/h (0 Bft) 95,74 %
27.06.2022 02:14 18,2 C 17,2 C 13,9 C 88 % 1015,3 hPa 0,0 l/m 0 min 0 min 0 W/m 0,0 km/h (0 Bft) 97,87 %
27.06.2022 02:16 18,2 C 17,2 C 13,9 C 88 % 1015,2 hPa 0,0 l/m 0 min 0 min 0 W/m 0,0 km/h (0 Bft) 97,87 %
27.06.2022 02:18 18,2 C 17,2 C 13,9 C 88 % 1015,2 hPa 0,0 l/m 0 min 0 min 0 W/m 3,2 km/h (1 Bft) 97,87 %
27.06.2022 02:20 18,2 C 17,2 C 13,9 C 88 % 1015,2 hPa 0,0 l/m 0 min 0 min 0 W/m 0,0 km/h (0 Bft) 97,87 %
27.06.2022 02:22 18,2 C 17,2 C 13,9 C 88 % 1015,2 hPa 0,0 l/m 0 min 0 min 0 W/m 0,0 km/h (0 Bft) 97,87 %
27.06.2022 02:24 18,2 C 17,2 C 13,9 C 88 % 1015,2 hPa 0,0 l/m 0 min 0 min 0 W/m 0,0 km/h (0 Bft) 97,83 %
27.06.2022 02:26 18,2 C 17,2 C 13,9 C 88 % 1015,2 hPa 0,0 l/m 0 min 0 min 0 W/m 0,0 km/h (0 Bft) 97,87 %
27.06.2022 02:28 18,2 C 17,2 C 13,9 C 88 % 1015,2 hPa 0,0 l/m 0 min 0 min 0 W/m 3,2 km/h (1 Bft) 95,74 %
27.06.2022 02:30 18,2 C 17,2 C 13,9 C 88 % 1015,3 hPa 0,0 l/m 0 min 0 min 0 W/m 3,2 km/h (1 Bft) 97,87 %
27.06.2022 02:32 18,1 C 17,2 C 13,9 C 88 % 1015,4 hPa 0,0 l/m 0 min 0 min 0 W/m 3,2 km/h (1 Bft) 97,87 %
27.06.2022 02:34 18,1 C 17,2 C 13,9 C 88 % 1015,5 hPa 0,0 l/m 0 min 0 min 0 W/m 0,0 km/h (0 Bft) 97,87 %
27.06.2022 02:36 18,1 C 17,2 C 13,9 C 88 % 1015,5 hPa 0,0 l/m 0 min 0 min 0 W/m 3,2 km/h (1 Bft) 100,00 %
27.06.2022 02:38 18,1 C 17,2 C 13,9 C 88 % 1015,5 hPa 0,0 l/m 0 min 0 min 0 W/m 3,2 km/h (1 Bft) 100,00 %
27.06.2022 02:40 18,2 C 17,2 C 13,9 C 89 % 1015,5 hPa 0,0 l/m 0 min 0 min 0 W/m 3,2 km/h (1 Bft) 100,00 %
27.06.2022 02:42 18,2 C 17,2 C 13,9 C 89 % 1015,5 hPa 0,0 l/m 0 min 0 min 0 W/m 0,0 km/h (0 Bft) 93,62 %
27.06.2022 02:44 18,1 C 17,2 C 13,9 C 89 % 1015,5 hPa 0,0 l/m 0 min 0 min 0 W/m 3,2 km/h (1 Bft) 97,87 %
27.06.2022 02:46 18,1 C 17,2 C 13,9 C 89 % 1015,4 hPa 0,0 l/m 0 min 0 min 0 W/m 3,2 km/h (1 Bft) 100,00 %
27.06.2022 02:48 18,1 C 17,2 C 13,9 C 89 % 1015,4 hPa 0,0 l/m 0 min 0 min 0 W/m 3,2 km/h (1 Bft) 97,87 %
27.06.2022 02:50 18,0 C 16,7 C 13,9 C 89 % 1015,4 hPa 0,0 l/m 0 min 0 min 0 W/m 6,4 km/h (2 Bft) 97,87 %
27.06.2022 02:52 17,9 C 16,7 C 13,9 C 90 % 1015,5 hPa 0,0 l/m 0 min 0 min 0 W/m 3,2 km/h (1 Bft) 93,62 %
27.06.2022 02:54 17,9 C 16,7 C 13,9 C 89 % 1015,5 hPa 0,0 l/m 0 min 0 min 0 W/m 9,7 km/h (2 Bft) 97,87 %
27.06.2022 02:56 17,9 C 16,7 C 13,3 C 90 % 1015,6 hPa 0,0 l/m 0 min 0 min 0 W/m 6,4 km/h (2 Bft) 95,74 %
27.06.2022 02:58 17,8 C 16,7 C 13,3 C 90 % 1015,6 hPa 0,0 l/m 0 min 0 min 0 W/m 6,4 km/h (2 Bft) 97,87 %
27.06.2022 03:00 17,8 C 16,7 C 13,3 C 90 % 1015,6 hPa 0,0 l/m 0 min 0 min 0 W/m 12,9 km/h (3 Bft) 97,83 %
27.06.2022 03:02 17,8 C 16,7 C 13,3 C 90 % 1015,7 hPa 0,0 l/m 0 min 0 min 0 W/m 3,2 km/h (1 Bft) 95,74 %
27.06.2022 03:04 17,8 C 16,7 C 13,3 C 90 % 1015,7 hPa 0,0 l/m 0 min 0 min 0 W/m 6,4 km/h (2 Bft) 97,87 %
27.06.2022 03:06 17,7 C 16,7 C 13,3 C 90 % 1015,7 hPa 0,0 l/m 0 min 0 min 0 W/m 6,4 km/h (2 Bft) 95,74 %
27.06.2022 03:08 17,7 C 16,7 C 13,3 C 90 % 1015,7 hPa 0,0 l/m 0 min 0 min 0 W/m 9,7 km/h (2 Bft) 97,87 %
27.06.2022 03:10 17,7 C 16,7 C 13,3 C 90 % 1015,7 hPa 0,0 l/m 0 min 0 min 0 W/m 3,2 km/h (1 Bft) 97,83 %
27.06.2022 03:12 17,7 C 16,7 C 13,3 C 90 % 1015,6 hPa 0,0 l/m 0 min 0 min 0 W/m 3,2 km/h (1 Bft) 97,87 %
27.06.2022 03:14 17,7 C 16,7 C 13,3 C 91 % 1015,6 hPa 0,0 l/m 0 min 0 min 0 W/m 3,2 km/h (1 Bft) 97,87 %
27.06.2022 03:16 17,7 C 16,7 C 13,3 C 91 % 1015,6 hPa 0,0 l/m 0 min 0 min 0 W/m 6,4 km/h (2 Bft) 97,87 %
27.06.2022 03:18 17,7 C 16,7 C 13,3 C 91 % 1015,5 hPa 0,0 l/m 0 min 0 min 0 W/m 6,4 km/h (2 Bft) 97,87 %
27.06.2022 03:20 17,7 C 16,7 C 13,3 C 91 % 1015,5 hPa 0,0 l/m 0 min 0 min 0 W/m 3,2 km/h (1 Bft) 100,00 %
27.06.2022 03:22 17,7 C 16,7 C 13,3 C 91 % 1015,5 hPa 0,0 l/m 0 min 0 min 0 W/m 3,2 km/h (1 Bft) 100,00 %
27.06.2022 03:24 17,7 C 16,7 C 13,3 C 91 % 1015,5 hPa 0,0 l/m 0 min 0 min 0 W/m 3,2 km/h (1 Bft) 100,00 %
27.06.2022 03:26 17,6 C 16,7 C 13,3 C 91 % 1015,5 hPa 0,0 l/m 0 min 0 min 0 W/m 6,4 km/h (2 Bft) 100,00 %
27.06.2022 03:28 17,6 C 16,7 C 13,3 C 91 % 1015,4 hPa 0,0 l/m 0 min 0 min 0 W/m 6,4 km/h (2 Bft) 100,00 %
27.06.2022 03:30 17,6 C 16,7 C 13,3 C 91 % 1015,4 hPa 0,0 l/m 0 min 0 min 0 W/m 6,4 km/h (2 Bft) 100,00 %
27.06.2022 03:32 17,6 C 16,7 C 13,3 C 91 % 1015,4 hPa 0,0 l/m 0 min 0 min 0 W/m 3,2 km/h (1 Bft) 100,00 %
27.06.2022 03:34 17,6 C 16,7 C 13,3 C 91 % 1015,3 hPa 0,0 l/m 0 min 0 min 0 W/m 3,2 km/h (1 Bft) 100,00 %
27.06.2022 03:36 17,6 C 16,7 C 13,3 C 91 % 1015,4 hPa 0,0 l/m 0 min 0 min 0 W/m 6,4 km/h (2 Bft) 100,00 %
27.06.2022 03:38 17,6 C 16,7 C 13,3 C 91 % 1015,4 hPa 0,0 l/m 0 min 0 min 0 W/m 3,2 km/h (1 Bft) 100,00 %
27.06.2022 03:40 17,6 C 16,7 C 13,3 C 91 % 1015,4 hPa 0,0 l/m 0 min 0 min 0 W/m 6,4 km/h (2 Bft) 97,87 %
27.06.2022 03:42 17,6 C 16,7 C 13,3 C 91 % 1015,3 hPa 0,0 l/m 0 min 0 min 0 W/m 12,9 km/h (3 Bft) 97,87 %
27.06.2022 03:44 17,6 C 16,7 C 13,3 C 91 % 1015,2 hPa 0,0 l/m 0 min 0 min 0 W/m 3,2 km/h (1 Bft) 100,00 %
27.06.2022 03:46 17,6 C 16,7 C 13,3 C 91 % 1015,2 hPa 0,0 l/m 0 min 0 min 0 W/m 3,2 km/h (1 Bft) 95,65 %
27.06.2022 03:48 17,6 C 16,7 C 13,3 C 91 % 1015,1 hPa 0,0 l/m 0 min 0 min 0 W/m 3,2 km/h (1 Bft) 97,87 %
27.06.2022 03:50 17,6 C 16,7 C 13,3 C 91 % 1015,1 hPa 0,0 l/m 0 min 0 min 0 W/m 9,7 km/h (2 Bft) 100,00 %
27.06.2022 03:52 17,6 C 16,7 C 13,3 C 91 % 1015,1 hPa 0,0 l/m 0 min 0 min 0 W/m 9,7 km/h (2 Bft) 100,00 %
27.06.2022 03:54 17,6 C 16,7 C 13,3 C 91 % 1015,1 hPa 0,0 l/m 0 min 0 min 0 W/m 9,7 km/h (2 Bft) 97,87 %
27.06.2022 03:56 17,6 C 16,7 C 13,3 C 91 % 1015,1 hPa 0,0 l/m 0 min 0 min 0 W/m 9,7 km/h (2 Bft) 97,87 %
27.06.2022 03:58 17,6 C 16,7 C 13,3 C 91 % 1015,1 hPa 0,0 l/m 0 min 0 min 0 W/m 3,2 km/h (1 Bft) 97,83 %
27.06.2022 04:00 17,6 C 16,7 C 13,3 C 91 % 1015,1 hPa 0,0 l/m 0 min 0 min 0 W/m 6,4 km/h (2 Bft) 97,87 %
27.06.2022 04:02 17,6 C 16,7 C 13,3 C 91 % 1015,1 hPa 0,0 l/m 0 min 0 min 0 W/m 6,4 km/h (2 Bft) 100,00 %
27.06.2022 04:04 17,6 C 16,7 C 13,3 C 92 % 1015,0 hPa 0,0 l/m 0 min 0 min 0 W/m 3,2 km/h (1 Bft) 97,87 %
27.06.2022 04:06 17,6 C 16,7 C 13,3 C 92 % 1015,0 hPa 0,0 l/m 0 min 0 min 0 W/m 6,4 km/h (2 Bft) 97,87 %
27.06.2022 04:08 17,6 C 16,7 C 13,3 C 92 % 1015,0 hPa 0,0 l/m 0 min 0 min 0 W/m 9,7 km/h (2 Bft) 97,87 %
27.06.2022 04:10 17,6 C 16,7 C 13,3 C 92 % 1015,0 hPa 0,0 l/m 0 min 0 min 0 W/m 6,4 km/h (2 Bft) 95,65 %
27.06.2022 04:12 17,6 C 16,7 C 13,3 C 92 % 1015,0 hPa 0,0 l/m 0 min 0 min 0 W/m 3,2 km/h (1 Bft) 97,87 %
27.06.2022 04:14 17,6 C 16,7 C 13,3 C 92 % 1014,9 hPa 0,0 l/m 0 min 0 min 0 W/m 3,2 km/h (1 Bft) 97,87 %
27.06.2022 04:16 17,6 C 16,7 C 13,3 C 92 % 1014,9 hPa 0,0 l/m 0 min 0 min 0 W/m 3,2 km/h (1 Bft) 95,74 %
27.06.2022 04:18 17,6 C 16,7 C 13,3 C 92 % 1014,8 hPa 0,0 l/m 0 min 0 min 0 W/m 3,2 km/h (1 Bft) 97,87 %
27.06.2022 04:20 17,6 C 16,7 C 13,3 C 92 % 1014,8 hPa 0,0 l/m 0 min 0 min 0 W/m 6,4 km/h (2 Bft) 97,87 %
27.06.2022 04:22 17,6 C 16,7 C 13,3 C 92 % 1014,7 hPa 0,0 l/m 0 min 0 min 0 W/m 6,4 km/h (2 Bft) 97,83 %
27.06.2022 04:24 17,6 C 16,7 C 13,3 C 92 % 1014,7 hPa 0,0 l/m 0 min 0 min 0 W/m 6,4 km/h (2 Bft) 97,87 %
27.06.2022 04:26 17,6 C 16,7 C 13,3 C 91 % 1014,7 hPa 0,0 l/m 0 min 0 min 0 W/m 6,4 km/h (2 Bft) 97,87 %
27.06.2022 04:28 17,6 C 16,7 C 13,3 C 91 % 1014,7 hPa 0,0 l/m 0 min 0 min 0 W/m 3,2 km/h (1 Bft) 95,74 %
27.06.2022 04:30 17,6 C 16,7 C 13,3 C 91 % 1014,7 hPa 0,0 l/m 0 min 0 min 0 W/m 3,2 km/h (1 Bft) 97,87 %
27.06.2022 04:32 17,6 C 16,7 C 13,3 C 91 % 1014,7 hPa 0,0 l/m 0 min 0 min 0 W/m 3,2 km/h (1 Bft) 97,87 %
27.06.2022 04:34 17,6 C 16,7 C 13,3 C 91 % 1014,7 hPa 0,0 l/m 0 min 0 min 0 W/m 6,4 km/h (2 Bft) 95,65 %
27.06.2022 04:36 17,6 C 16,7 C 13,3 C 91 % 1014,7 hPa 0,0 l/m 0 min 0 min 0 W/m 3,2 km/h (1 Bft) 97,87 %
27.06.2022 04:38 17,6 C 16,7 C 13,3 C 91 % 1014,7 hPa 0,0 l/m 0 min 0 min 0 W/m 6,4 km/h (2 Bft) 97,87 %
27.06.2022 04:40 17,6 C 16,7 C 13,3 C 91 % 1014,7 hPa 0,0 l/m 0 min 0 min 0 W/m 6,4 km/h (2 Bft) 93,62 %
27.06.2022 04:42 17,6 C 16,7 C 13,3 C 91 % 1014,7 hPa 0,0 l/m 0 min 0 min 0 W/m 3,2 km/h (1 Bft) 93,62 %
27.06.2022 04:44 17,6 C 17,2 C 13,3 C 91 % 1014,7 hPa 0,0 l/m 0 min 0 min 0 W/m 0,0 km/h (0 Bft) 95,65 %
27.06.2022 04:46 17,6 C 17,2 C 13,3 C 91 % 1014,6 hPa 0,0 l/m 0 min 0 min 0 W/m 3,2 km/h (1 Bft) 93,62 %
27.06.2022 04:48 17,6 C 17,2 C 13,9 C 91 % 1014,5 hPa 0,0 l/m 0 min 0 min 0 W/m 3,2 km/h (1 Bft) 95,74 %
27.06.2022 04:50 17,6 C 17,2 C 13,9 C 91 % 1014,4 hPa 0,0 l/m 0 min 0 min 0 W/m 3,2 km/h (1 Bft) 95,74 %
27.06.2022 04:52 17,6 C 17,2 C 13,9 C 91 % 1014,3 hPa 0,0 l/m 0 min 0 min 0 W/m 3,2 km/h (1 Bft) 95,74 %
27.06.2022 04:54 17,6 C 17,2 C 13,9 C 91 % 1014,3 hPa 0,0 l/m 0 min 0 min 0 W/m 6,4 km/h (2 Bft) 95,74 %
27.06.2022 04:56 17,6 C 17,2 C 13,9 C 90 % 1014,3 hPa 0,0 l/m 0 min 0 min 0 W/m 6,4 km/h (2 Bft) 95,65 %
27.06.2022 04:58 17,6 C 17,2 C 13,9 C 90 % 1014,3 hPa 0,0 l/m 0 min 0 min 0 W/m 3,2 km/h (1 Bft) 95,74 %
27.06.2022 05:00 17,6 C 17,2 C 13,9 C 90 % 1014,3 hPa 0,0 l/m 0 min 0 min 0 W/m 0,0 km/h (0 Bft) 95,74 %
27.06.2022 05:02 17,6 C 17,2 C 13,9 C 90 % 1014,3 hPa 0,0 l/m 0 min 0 min 0 W/m 3,2 km/h (1 Bft) 97,87 %
27.06.2022 05:04 17,6 C 17,2 C 13,3 C 90 % 1014,3 hPa 0,0 l/m 0 min 0 min 0 W/m 6,4 km/h (2 Bft) 93,62 %
27.06.2022 05:06 17,6 C 17,2 C 13,9 C 90 % 1014,3 hPa 0,0 l/m 0 min 0 min 0 W/m 3,2 km/h (1 Bft) 95,74 %
27.06.2022 05:08 17,7 C 17,2 C 13,9 C 90 % 1014,2 hPa 0,0 l/m 0 min 0 min 0 W/m 6,4 km/h (2 Bft) 93,48 %
27.06.2022 05:10 17,7 C 17,2 C 13,9 C 90 % 1014,2 hPa 0,0 l/m 0 min 0 min 0 W/m 3,2 km/h (1 Bft) 97,87 %
27.06.2022 05:12 17,7 C 17,2 C 13,3 C 90 % 1014,2 hPa 0,0 l/m 0 min 0 min 0 W/m 6,4 km/h (2 Bft) 97,87 %
27.06.2022 05:14 17,7 C 17,2 C 13,9 C 90 % 1014,1 hPa 0,0 l/m 0 min 0 min 0 W/m 3,2 km/h (1 Bft) 97,87 %
27.06.2022 05:16 17,7 C 16,7 C 13,9 C 90 % 1014,1 hPa 0,0 l/m 0 min 0 min 0 W/m 9,7 km/h (2 Bft) 97,87 %
27.06.2022 05:18 17,7 C 16,7 C 13,9 C 90 % 1014,1 hPa 0,0 l/m 0 min 0 min 0 W/m 9,7 km/h (2 Bft) 95,74 %
27.06.2022 05:20 17,7 C 17,2 C 13,9 C 90 % 1014,1 hPa 0,0 l/m 0 min 0 min 0 W/m 3,2 km/h (1 Bft) 95,74 %
27.06.2022 05:22 17,6 C 17,2 C 13,3 C 90 % 1014,1 hPa 0,0 l/m 0 min 0 min 0 W/m 3,2 km/h (1 Bft) 97,83 %
27.06.2022 05:24 17,7 C 17,2 C 13,3 C 89 % 1014,1 hPa 0,0 l/m 0 min 0 min 0 W/m 3,2 km/h (1 Bft) 97,87 %
27.06.2022 05:26 17,7 C 16,7 C 13,3 C 89 % 1014,1 hPa 0,0 l/m 0 min 0 min 0 W/m 9,7 km/h (2 Bft) 100,00 %
27.06.2022 05:28 17,7 C 17,2 C 13,3 C 89 % 1014,1 hPa 0,0 l/m 0 min 0 min 0 W/m 3,2 km/h (1 Bft) 95,74 %
27.06.2022 05:30 17,7 C 16,7 C 13,3 C 89 % 1014,0 hPa 0,0 l/m 0 min 0 min 0 W/m 3,2 km/h (1 Bft) 100,00 %
27.06.2022 05:32 17,7 C 16,7 C 13,9 C 89 % 1014,1 hPa 0,0 l/m 0 min 0 min 0 W/m 3,2 km/h (1 Bft) 100,00 %
27.06.2022 05:34 17,7 C 16,7 C 13,3 C 89 % 1014,1 hPa 0,0 l/m 0 min 0 min 0 W/m 0,0 km/h (0 Bft) 95,65 %
27.06.2022 05:36 17,7 C 16,7 C 13,3 C 89 % 1014,2 hPa 0,0 l/m 0 min 0 min 0 W/m 0,0 km/h (0 Bft) 100,00 %
27.06.2022 05:38 17,6 C 16,7 C 13,3 C 89 % 1014,2 hPa 0,0 l/m 0 min 0 min 0 W/m 3,2 km/h (1 Bft) 100,00 %
27.06.2022 05:40 17,7 C 16,7 C 13,3 C 89 % 1014,2 hPa 0,0 l/m 0 min 0 min 0 W/m 3,2 km/h (1 Bft) 97,87 %
27.06.2022 05:42 17,7 C 16,7 C 13,3 C 89 % 1014,3 hPa 0,0 l/m 0 min 0 min 0 W/m 0,0 km/h (0 Bft) 97,87 %
27.06.2022 05:44 17,7 C 16,7 C 13,3 C 89 % 1014,3 hPa 0,0 l/m 0 min 0 min 0 W/m 0,0 km/h (0 Bft) 100,00 %
27.06.2022 05:46 17,7 C 16,7 C 13,3 C 89 % 1014,4 hPa 0,0 l/m 0 min 0 min 0 W/m 0,0 km/h (0 Bft) 97,87 %
27.06.2022 05:48 17,7 C 16,7 C 13,3 C 89 % 1014,4 hPa 0,0 l/m 0 min 0 min 0 W/m 0,0 km/h (0 Bft) 97,87 %
27.06.2022 05:50 17,7 C 16,7 C 13,3 C 89 % 1014,5 hPa 0,0 l/m 0 min 0 min 0 W/m 0,0 km/h (0 Bft) 97,87 %
27.06.2022 05:52 17,7 C 16,7 C 13,3 C 89 % 1014,5 hPa 0,0 l/m 0 min 0 min 0 W/m 3,2 km/h (1 Bft) 100,00 %
27.06.2022 05:54 17,7 C 16,7 C 13,3 C 89 % 1014,5 hPa 0,0 l/m 0 min 0 min 0 W/m 0,0 km/h (0 Bft) 100,00 %
27.06.2022 05:56 17,7 C 16,7 C 13,3 C 89 % 1014,5 hPa 0,0 l/m 0 min 0 min 0 W/m 0,0 km/h (0 Bft) 100,00 %
27.06.2022 05:58 17,7 C 16,7 C 13,3 C 89 % 1014,5 hPa 0,0 l/m 0 min 0 min 0 W/m 0,0 km/h (0 Bft) 100,00 %
27.06.2022 06:00 17,7 C 16,7 C 13,3 C 89 % 1014,5 hPa 0,0 l/m 0 min 0 min 0 W/m 0,0 km/h (0 Bft) 100,00 %
27.06.2022 06:02 17,7 C 16,7 C 13,3 C 89 % 1014,4 hPa 0,0 l/m 0 min 0 min 0 W/m 3,2 km/h (1 Bft) 97,87 %
27.06.2022 06:04 17,7 C 16,7 C 13,3 C 89 % 1014,4 hPa 0,0 l/m 0 min 0 min 0 W/m 0,0 km/h (0 Bft) 100,00 %
27.06.2022 06:07 17,7 C 16,7 C 13,3 C 89 % 1014,5 hPa 0,0 l/m 0 min 0 min 0 W/m 3,2 km/h (1 Bft) 100,00 %
27.06.2022 06:08 17,7 C 16,7 C 13,3 C 89 % 1014,5 hPa 0,0 l/m 0 min 0 min 1 W/m 3,2 km/h (1 Bft) 100,00 %
27.06.2022 06:10 17,7 C 16,7 C 13,3 C 89 % 1014,4 hPa 0,0 l/m 0 min 0 min 6 W/m 0,0 km/h (0 Bft) 100,00 %
27.06.2022 06:12 17,6 C 16,7 C 13,3 C 89 % 1014,4 hPa 0,0 l/m 0 min 0 min 8 W/m 0,0 km/h (0 Bft) 100,00 %
27.06.2022 06:14 17,6 C 16,7 C 13,3 C 89 % 1014,4 hPa 0,0 l/m 0 min 0 min 12 W/m 3,2 km/h (1 Bft) 100,00 %
27.06.2022 06:16 17,6 C 16,7 C 13,3 C 89 % 1014,4 hPa 0,0 l/m 0 min 0 min 14 W/m 3,2 km/h (1 Bft) 100,00 %
27.06.2022 06:18 17,6 C 16,7 C 13,3 C 89 % 1014,4 hPa 0,0 l/m 0 min 0 min 16 W/m 0,0 km/h (0 Bft) 100,00 %
27.06.2022 06:20 17,6 C 16,7 C 13,3 C 89 % 1014,5 hPa 0,0 l/m 0 min 0 min 19 W/m 0,0 km/h (0 Bft) 100,00 %
27.06.2022 06:22 17,6 C 16,7 C 13,3 C 90 % 1014,5 hPa 0,0 l/m 0 min 0 min 21 W/m 0,0 km/h (0 Bft) 100,00 %
27.06.2022 06:24 17,6 C 16,7 C 13,3 C 90 % 1014,5 hPa 0,0 l/m 0 min 0 min 21 W/m 3,2 km/h (1 Bft) 100,00 %
27.06.2022 06:26 17,6 C 16,7 C 13,3 C 90 % 1014,5 hPa 0,0 l/m 0 min 0 min 21 W/m 3,2 km/h (1 Bft) 100,00 %
27.06.2022 06:28 17,6 C 16,7 C 13,3 C 90 % 1014,6 hPa 0,0 l/m 0 min 0 min 18 W/m 0,0 km/h (0 Bft) 97,87 %
27.06.2022 06:30 17,6 C 16,7 C 13,3 C 90 % 1014,5 hPa 0,0 l/m 0 min 0 min 15 W/m 0,0 km/h (0 Bft) 100,00 %
27.06.2022 06:32 17,6 C 16,7 C 13,3 C 90 % 1014,5 hPa 0,0 l/m 0 min 0 min 14 W/m 3,2 km/h (1 Bft) 100,00 %
27.06.2022 06:34 17,6 C 16,7 C 13,3 C 90 % 1014,5 hPa 0,0 l/m 0 min 0 min 14 W/m 0,0 km/h (0 Bft) 93,62 %
27.06.2022 06:36 17,6 C 16,7 C 13,3 C 90 % 1014,4 hPa 0,0 l/m 0 min 0 min 15 W/m 0,0 km/h (0 Bft) 97,87 %
27.06.2022 06:38 17,6 C 16,7 C 13,3 C 90 % 1014,3 hPa 0,0 l/m 0 min 0 min 17 W/m 6,4 km/h (2 Bft) 97,87 %
27.06.2022 06:40 17,6 C 16,7 C 13,3 C 90 % 1014,3 hPa 0,0 l/m 0 min 0 min 19 W/m 6,4 km/h (2 Bft) 97,87 %
27.06.2022 06:42 17,6 C 16,7 C 13,3 C 90 % 1014,3 hPa 0,0 l/m 0 min 0 min 19 W/m 3,2 km/h (1 Bft) 97,87 %
27.06.2022 06:44 17,7 C 16,7 C 13,3 C 90 % 1014,4 hPa 0,0 l/m 0 min 0 min 19 W/m 3,2 km/h (1 Bft) 95,74 %
27.06.2022 06:46 17,7 C 16,7 C 13,3 C 91 % 1014,5 hPa 0,0 l/m 0 min 0 min 18 W/m 0,0 km/h (0 Bft) 97,83 %
27.06.2022 06:48 17,6 C 16,7 C 13,3 C 91 % 1014,6 hPa 0,0 l/m 0 min 0 min 20 W/m 0,0 km/h (0 Bft) 97,87 %
27.06.2022 06:50 17,7 C 16,7 C 13,3 C 91 % 1014,5 hPa 0,0 l/m 0 min 0 min 28 W/m 0,0 km/h (0 Bft) 95,74 %
27.06.2022 06:52 17,7 C 16,7 C 13,3 C 91 % 1014,4 hPa 0,0 l/m 0 min 0 min 34 W/m 0,0 km/h (0 Bft) 95,74 %
27.06.2022 06:54 17,7 C 16,7 C 13,3 C 91 % 1014,5 hPa 0,0 l/m 0 min 0 min 34 W/m 0,0 km/h (0 Bft) 95,74 %
27.06.2022 06:56 17,7 C 16,7 C 13,3 C 91 % 1014,4 hPa 0,0 l/m 0 min 0 min 32 W/m 3,2 km/h (1 Bft) 93,48 %
27.06.2022 06:58 17,7 C 16,7 C 13,3 C 91 % 1014,4 hPa 0,0 l/m 0 min 0 min 34 W/m 3,2 km/h (1 Bft) 95,74 %
27.06.2022 07:00 17,7 C 17,2 C 13,3 C 91 % 1014,4 hPa 0,0 l/m 0 min 0 min 40 W/m 0,0 km/h (0 Bft) 95,74 %
27.06.2022 07:02 17,7 C 17,2 C 13,9 C 91 % 1014,4 hPa 0,0 l/m 0 min 0 min 49 W/m 3,2 km/h (1 Bft) 95,74 %
27.06.2022 07:04 17,7 C 17,2 C 13,9 C 91 % 1014,4 hPa 0,0 l/m 0 min 0 min 54 W/m 6,4 km/h (2 Bft) 93,62 %
27.06.2022 07:06 17,7 C 17,2 C 13,9 C 91 % 1014,3 hPa 0,0 l/m 0 min 0 min 58 W/m 3,2 km/h (1 Bft) 95,74 %
27.06.2022 07:08 17,7 C 17,2 C 13,9 C 91 % 1014,2 hPa 0,0 l/m 0 min 0 min 66 W/m 3,2 km/h (1 Bft) 97,83 %
27.06.2022 07:10 17,6 C 17,2 C 13,9 C 91 % 1014,1 hPa 0,0 l/m 0 min 0 min 75 W/m 6,4 km/h (2 Bft) 97,87 %
27.06.2022 07:12 17,7 C 17,2 C 13,9 C 91 % 1014,1 hPa 0,0 l/m 0 min 0 min 80 W/m 3,2 km/h (1 Bft) 97,87 %
27.06.2022 07:14 17,7 C 17,2 C 13,9 C 91 % 1014,0 hPa 0,0 l/m 0 min 0 min 84 W/m 0,0 km/h (0 Bft) 97,87 %
27.06.2022 07:16 17,7 C 17,8 C 13,9 C 91 % 1013,9 hPa 0,0 l/m 0 min 0 min 88 W/m 0,0 km/h (0 Bft) 95,74 %
27.06.2022 07:18 17,7 C 17,8 C 13,9 C 91 % 1013,9 hPa 0,0 l/m 0 min 0 min 91 W/m 3,2 km/h (1 Bft) 97,87 %
27.06.2022 07:20 17,7 C 17,8 C 13,9 C 92 % 1014,0 hPa 0,0 l/m 0 min 0 min 96 W/m 3,2 km/h (1 Bft) 95,74 %
27.06.2022 07:22 17,7 C 17,8 C 13,9 C 92 % 1014,0 hPa 0,0 l/m 0 min 0 min 99 W/m 6,4 km/h (2 Bft) 97,83 %
27.06.2022 07:24 17,7 C 17,8 C 13,9 C 92 % 1013,9 hPa 0,0 l/m 0 min 0 min 104 W/m 3,2 km/h (1 Bft) 97,87 %
27.06.2022 07:26 17,7 C 17,8 C 13,9 C 92 % 1013,9 hPa 0,0 l/m 0 min 0 min 113 W/m 3,2 km/h (1 Bft) 95,74 %
27.06.2022 07:28 17,7 C 17,8 C 13,9 C 92 % 1013,8 hPa 0,0 l/m 0 min 0 min 123 W/m 3,2 km/h (1 Bft) 95,74 %
27.06.2022 07:30 17,8 C 17,8 C 13,9 C 91 % 1013,7 hPa 0,0 l/m 0 min 0 min 127 W/m 3,2 km/h (1 Bft) 97,87 %
27.06.2022 07:32 17,8 C 17,8 C 13,9 C 91 % 1013,6 hPa 0,0 l/m 0 min 0 min 124 W/m 6,4 km/h (2 Bft) 97,83 %
27.06.2022 07:34 17,8 C 17,8 C 13,9 C 91 % 1013,4 hPa 0,0 l/m 0 min 0 min 118 W/m 3,2 km/h (1 Bft) 95,74 %
27.06.2022 07:36 17,8 C 17,8 C 13,9 C 91 % 1013,4 hPa 0,0 l/m 0 min 0 min 116 W/m 6,4 km/h (2 Bft) 95,74 %
27.06.2022 07:38 17,8 C 17,8 C 13,9 C 91 % 1013,3 hPa 0,0 l/m 0 min 0 min 122 W/m 3,2 km/h (1 Bft) 97,87 %
27.06.2022 07:40 17,8 C 17,8 C 14,4 C 91 % 1013,4 hPa 0,0 l/m 0 min 0 min 124 W/m 6,4 km/h (2 Bft) 95,74 %
27.06.2022 07:42 17,8 C 17,8 C 14,4 C 91 % 1013,6 hPa 0,0 l/m 0 min 0 min 129 W/m 3,2 km/h (1 Bft) 97,87 %
27.06.2022 07:44 17,9 C 17,8 C 13,9 C 91 % 1013,8 hPa 0,0 l/m 0 min 0 min 104 W/m 3,2 km/h (1 Bft) 95,65 %
27.06.2022 07:46 17,9 C 17,8 C 14,4 C 91 % 1014,0 hPa 0,0 l/m 2 min 0 min 170 W/m 3,2 km/h (1 Bft) 97,87 %
27.06.2022 07:48 17,9 C 17,8 C 14,4 C 91 % 1014,2 hPa 0,0 l/m 0 min 0 min 132 W/m 3,2 km/h (1 Bft) 97,87 %
27.06.2022 07:50 17,9 C 17,8 C 14,4 C 91 % 1014,3 hPa 0,0 l/m 0 min 0 min 46 W/m 3,2 km/h (1 Bft) 97,87 %
27.06.2022 07:52 17,9 C 17,8 C 14,4 C 90 % 1014,4 hPa 0,0 l/m 0 min 0 min 40 W/m 0,0 km/h (0 Bft) 97,87 %
27.06.2022 07:54 17,9 C 17,8 C 14,4 C 90 % 1014,5 hPa 0,0 l/m 0 min 0 min 40 W/m 3,2 km/h (1 Bft) 95,74 %
27.06.2022 07:56 17,9 C 17,8 C 14,4 C 90 % 1014,7 hPa 0,0 l/m 0 min 0 min 42 W/m 3,2 km/h (1 Bft) 97,83 %
27.06.2022 07:58 17,9 C 17,8 C 13,9 C 90 % 1014,7 hPa 0,0 l/m 0 min 0 min 42 W/m 3,2 km/h (1 Bft) 95,74 %
27.06.2022 08:00 17,9 C 17,2 C 13,9 C 90 % 1014,7 hPa 0,0 l/m 0 min 0 min 42 W/m 3,2 km/h (1 Bft) 97,87 %
27.06.2022 08:02 17,9 C 17,2 C 13,9 C 90 % 1014,6 hPa 0,0 l/m 0 min 0 min 44 W/m 3,2 km/h (1 Bft) 97,87 %
27.06.2022 08:04 17,9 C 17,2 C 13,9 C 90 % 1014,3 hPa 0,0 l/m 0 min 0 min 51 W/m 3,2 km/h (1 Bft) 97,87 %
27.06.2022 08:06 17,9 C 17,2 C 13,9 C 90 % 1014,1 hPa 0,0 l/m 0 min 0 min 62 W/m 3,2 km/h (1 Bft) 95,74 %
27.06.2022 08:08 17,9 C 17,2 C 13,9 C 89 % 1014,3 hPa 0,0 l/m 0 min 0 min 68 W/m 3,2 km/h (1 Bft) 97,83 %
27.06.2022 08:10 17,9 C 17,8 C 13,9 C 89 % 1014,5 hPa 0,0 l/m 0 min 0 min 74 W/m 0,0 km/h (0 Bft) 97,87 %
27.06.2022 08:12 17,9 C 17,8 C 13,9 C 90 % 1014,7 hPa 0,0 l/m 0 min 0 min 80 W/m 3,2 km/h (1 Bft) 97,87 %
27.06.2022 08:14 17,9 C 17,8 C 13,9 C 90 % 1014,9 hPa 0,0 l/m 0 min 0 min 81 W/m 3,2 km/h (1 Bft) 95,74 %
27.06.2022 08:16 17,9 C 17,8 C 14,4 C 90 % 1014,9 hPa 0,0 l/m 0 min 0 min 83 W/m 0,0 km/h (0 Bft) 97,87 %
27.06.2022 08:18 17,9 C 17,8 C 14,4 C 90 % 1014,9 hPa 0,0 l/m 0 min 0 min 92 W/m 3,2 km/h (1 Bft) 100,00 %
27.06.2022 08:20 17,9 C 17,8 C 14,4 C 90 % 1015,0 hPa 0,0 l/m 0 min 0 min 101 W/m 0,0 km/h (0 Bft) 97,83 %
27.06.2022 08:22 18,0 C 17,8 C 14,4 C 90 % 1015,1 hPa 0,0 l/m 0 min 0 min 117 W/m 0,0 km/h (0 Bft) 72,34 %
27.06.2022 08:24 18,0 C 17,8 C 14,4 C 90 % 1015,1 hPa 0,0 l/m 0 min 0 min 136 W/m 0,0 km/h (0 Bft) 77,50 %
27.06.2022 08:26 18,1 C 18,3 C 14,4 C 89 % 1015,0 hPa 0,0 l/m 0 min 0 min 166 W/m 3,2 km/h (1 Bft) 100,00 %
27.06.2022 08:28 18,1 C 18,3 C 14,4 C 89 % 1015,0 hPa 0,0 l/m 0 min 0 min 192 W/m 0,0 km/h (0 Bft) 97,87 %
27.06.2022 08:30 18,1 C 18,3 C 15,0 C 89 % 1015,0 hPa 0,0 l/m 0 min 0 min 205 W/m 0,0 km/h (0 Bft) 95,74 %
27.06.2022 08:32 18,1 C 18,3 C 15,0 C 88 % 1015,2 hPa 0,0 l/m 0 min 0 min 196 W/m 0,0 km/h (0 Bft) 95,65 %
27.06.2022 08:34 18,1 C 18,3 C 15,0 C 89 % 1015,4 hPa 0,0 l/m 0 min 0 min 151 W/m 9,7 km/h (2 Bft) 97,87 %
27.06.2022 08:36 18,2 C 18,3 C 15,0 C 88 % 1015,5 hPa 0,0 l/m 0 min 0 min 126 W/m 6,4 km/h (2 Bft) 95,74 %
27.06.2022 08:38 18,2 C 18,3 C 15,0 C 88 % 1015,6 hPa 0,0 l/m 0 min 0 min 110 W/m 6,4 km/h (2 Bft) 97,87 %
27.06.2022 08:40 18,2 C 18,3 C 15,0 C 88 % 1015,7 hPa 0,0 l/m 0 min 0 min 105 W/m 9,7 km/h (2 Bft) 97,87 %
27.06.2022 08:42 18,3 C 18,3 C 15,0 C 88 % 1015,8 hPa 0,0 l/m 0 min 0 min 111 W/m 3,2 km/h (1 Bft) 97,87 %
27.06.2022 08:44 18,3 C 18,3 C 15,0 C 88 % 1015,8 hPa 0,0 l/m 0 min 0 min 123 W/m 6,4 km/h (2 Bft) 97,83 %
27.06.2022 08:46 18,3 C 18,3 C 15,0 C 87 % 1015,7 hPa 0,0 l/m 0 min 0 min 121 W/m 3,2 km/h (1 Bft) 97,87 %
27.06.2022 08:48 18,4 C 18,3 C 15,0 C 87 % 1015,7 hPa 0,0 l/m 0 min 0 min 117 W/m 6,4 km/h (2 Bft) 97,87 %
27.06.2022 08:50 18,5 C 18,3 C 15,0 C 87 % 1015,6 hPa 0,0 l/m 0 min 0 min 123 W/m 3,2 km/h (1 Bft) 95,74 %
27.06.2022 08:52 18,5 C 18,3 C 15,0 C 87 % 1015,5 hPa 0,0 l/m 0 min 0 min 140 W/m 3,2 km/h (1 Bft) 97,87 %
27.06.2022 08:54 18,6 C 18,3 C 15,0 C 87 % 1015,3 hPa 0,0 l/m 0 min 0 min 153 W/m 3,2 km/h (1 Bft) 97,87 %
27.06.2022 08:56 18,6 C 18,3 C 15,0 C 87 % 1015,2 hPa 0,0 l/m 0 min 0 min 163 W/m 6,4 km/h (2 Bft) 97,83 %
27.06.2022 08:58 18,6 C 18,3 C 15,0 C 87 % 1015,1 hPa 0,0 l/m 0 min 0 min 176 W/m 3,2 km/h (1 Bft) 97,87 %
27.06.2022 09:00 18,7 C 18,9 C 15,0 C 87 % 1015,0 hPa 0,0 l/m 0 min 0 min 184 W/m 6,4 km/h (2 Bft) 97,87 %
27.06.2022 09:02 18,7 C 18,9 C 15,0 C 88 % 1015,0 hPa 0,0 l/m 0 min 0 min 186 W/m 3,2 km/h (1 Bft) 97,87 %
27.06.2022 09:04 18,8 C 18,9 C 15,0 C 88 % 1014,9 hPa 0,0 l/m 0 min 0 min 190 W/m 3,2 km/h (1 Bft) 100,00 %
27.06.2022 09:06 18,8 C 18,9 C 15,0 C 88 % 1015,0 hPa 0,0 l/m 0 min 0 min 192 W/m 3,2 km/h (1 Bft) 100,00 %
27.06.2022 09:08 18,8 C 18,9 C 15,0 C 88 % 1015,0 hPa 0,0 l/m 0 min 0 min 183 W/m 3,2 km/h (1 Bft) 100,00 %
27.06.2022 09:10 18,8 C 18,9 C 15,6 C 88 % 1015,0 hPa 0,0 l/m 0 min 0 min 170 W/m 6,4 km/h (2 Bft) 100,00 %
27.06.2022 09:12 18,9 C 18,9 C 15,6 C 87 % 1015,0 hPa 0,0 l/m 0 min 0 min 172 W/m 3,2 km/h (1 Bft) 100,00 %
27.06.2022 09:14 18,9 C 18,9 C 15,6 C 87 % 1014,9 hPa 0,0 l/m 0 min 0 min 184 W/m 3,2 km/h (1 Bft) 100,00 %
27.06.2022 09:16 18,9 C 18,9 C 15,6 C 87 % 1014,8 hPa 0,0 l/m 0 min 0 min 182 W/m 3,2 km/h (1 Bft) 97,87 %
27.06.2022 09:18 18,9 C 18,9 C 15,6 C 87 % 1014,8 hPa 0,0 l/m 0 min 0 min 179 W/m 6,4 km/h (2 Bft) 100,00 %
27.06.2022 09:20 18,9 C 18,9 C 15,6 C 87 % 1014,8 hPa 0,0 l/m 0 min 0 min 172 W/m 3,2 km/h (1 Bft) 100,00 %
27.06.2022 09:22 18,9 C 18,9 C 15,6 C 87 % 1014,7 hPa 0,0 l/m 0 min 0 min 153 W/m 3,2 km/h (1 Bft) 97,87 %
27.06.2022 09:24 18,9 C 18,9 C 15,6 C 86 % 1014,7 hPa 0,0 l/m 0 min 0 min 128 W/m 3,2 km/h (1 Bft) 100,00 %
27.06.2022 09:26 18,9 C 18,9 C 15,0 C 86 % 1014,8 hPa 0,0 l/m 0 min 0 min 115 W/m 3,2 km/h (1 Bft) 100,00 %
27.06.2022 09:28 18,9 C 18,9 C 15,0 C 86 % 1014,9 hPa 0,0 l/m 0 min 0 min 119 W/m 3,2 km/h (1 Bft) 97,87 %
27.06.2022 09:30 18,9 C 18,9 C 15,0 C 86 % 1014,9 hPa 0,0 l/m 0 min 0 min 141 W/m 3,2 km/h (1 Bft) 93,62 %
27.06.2022 09:32 18,9 C 18,9 C 15,0 C 86 % 1015,0 hPa 0,0 l/m 0 min 0 min 160 W/m 3,2 km/h (1 Bft) 100,00 %
27.06.2022 09:34 18,9 C 18,9 C 15,0 C 86 % 1014,9 hPa 0,0 l/m 0 min 0 min 162 W/m 3,2 km/h (1 Bft) 100,00 %
27.06.2022 09:36 18,9 C 18,9 C 15,0 C 87 % 1014,8 hPa 0,0 l/m 0 min 0 min 165 W/m 3,2 km/h (1 Bft) 100,00 %
27.06.2022 09:38 18,9 C 18,9 C 15,0 C 87 % 1014,7 hPa 0,0 l/m 0 min 0 min 170 W/m 6,4 km/h (2 Bft) 100,00 %
27.06.2022 09:40 19,0 C 18,9 C 15,0 C 87 % 1014,8 hPa 0,0 l/m 0 min 0 min 163 W/m 6,4 km/h (2 Bft) 97,87 %
27.06.2022 09:42 18,9 C 18,9 C 15,0 C 87 % 1014,9 hPa 0,0 l/m 0 min 0 min 145 W/m 6,4 km/h (2 Bft) 100,00 %
27.06.2022 09:44 19,0 C 18,9 C 15,6 C 87 % 1015,0 hPa 0,0 l/m 0 min 0 min 142 W/m 3,2 km/h (1 Bft) 100,00 %
27.06.2022 09:46 19,0 C 18,9 C 15,6 C 87 % 1015,2 hPa 0,0 l/m 0 min 0 min 148 W/m 6,4 km/h (2 Bft) 100,00 %
27.06.2022 09:48 19,1 C 18,9 C 15,6 C 87 % 1015,3 hPa 0,0 l/m 0 min 0 min 155 W/m 6,4 km/h (2 Bft) 97,87 %
27.06.2022 09:50 19,1 C 18,9 C 15,6 C 87 % 1015,3 hPa 0,0 l/m 0 min 0 min 169 W/m 6,4 km/h (2 Bft) 97,87 %
27.06.2022 09:52 19,1 C 18,9 C 15,6 C 87 % 1015,2 hPa 0,0 l/m 0 min 0 min 224 W/m 3,2 km/h (1 Bft) 100,00 %
27.06.2022 09:54 19,1 C 19,4 C 15,6 C 87 % 1015,2 hPa 0,0 l/m 0 min 0 min 305 W/m 3,2 km/h (1 Bft) 100,00 %
27.06.2022 09:56 19,1 C 19,4 C 15,6 C 87 % 1015,2 hPa 0,0 l/m 0 min 0 min 270 W/m 6,4 km/h (2 Bft) 97,83 %
27.06.2022 09:58 19,1 C 19,4 C 15,6 C 86 % 1015,2 hPa 0,0 l/m 0 min 0 min 238 W/m 3,2 km/h (1 Bft) 97,87 %
27.06.2022 10:00 19,1 C 19,4 C 15,6 C 86 % 1015,2 hPa 0,0 l/m 0 min 0 min 212 W/m 6,4 km/h (2 Bft) 97,87 %
27.06.2022 10:02 19,2 C 19,4 C 15,6 C 86 % 1015,2 hPa 0,0 l/m 0 min 0 min 193 W/m 3,2 km/h (1 Bft) 97,87 %
27.06.2022 10:04 19,2 C 19,4 C 15,6 C 86 % 1015,4 hPa 0,0 l/m 0 min 0 min 168 W/m 3,2 km/h (1 Bft) 97,87 %
27.06.2022 10:06 19,3 C 19,4 C 15,6 C 86 % 1015,4 hPa 0,0 l/m 0 min 0 min 148 W/m 6,4 km/h (2 Bft) 95,74 %
27.06.2022 10:08 19,3 C 19,4 C 15,6 C 86 % 1015,5 hPa 0,0 l/m 0 min 0 min 136 W/m 3,2 km/h (1 Bft) 93,48 %
27.06.2022 10:10 19,3 C 19,4 C 15,6 C 86 % 1015,6 hPa 0,0 l/m 0 min 0 min 121 W/m 6,4 km/h (2 Bft) 95,74 %
27.06.2022 10:12 19,3 C 18,9 C 15,6 C 86 % 1015,7 hPa 0,0 l/m 0 min 0 min 98 W/m 6,4 km/h (2 Bft) 93,62 %
27.06.2022 10:14 19,3 C 18,9 C 15,6 C 86 % 1015,8 hPa 0,0 l/m 0 min 0 min 82 W/m 3,2 km/h (1 Bft) 95,74 %
27.06.2022 10:16 19,3 C 18,9 C 15,6 C 85 % 1015,8 hPa 0,0 l/m 0 min 0 min 79 W/m 6,4 km/h (2 Bft) 93,62 %
27.06.2022 10:18 19,3 C 18,9 C 15,6 C 85 % 1015,8 hPa 0,0 l/m 0 min 0 min 82 W/m 6,4 km/h (2 Bft) 95,74 %
27.06.2022 10:20 19,3 C 18,9 C 15,6 C 85 % 1015,8 hPa 0,0 l/m 0 min 0 min 88 W/m 3,2 km/h (1 Bft) 95,65 %
27.06.2022 10:22 19,3 C 18,9 C 15,6 C 85 % 1015,9 hPa 0,0 l/m 0 min 0 min 103 W/m 6,4 km/h (2 Bft) 91,49 %
27.06.2022 10:24 19,3 C 18,9 C 15,6 C 85 % 1015,9 hPa 0,0 l/m 0 min 0 min 136 W/m 3,2 km/h (1 Bft) 93,62 %
27.06.2022 10:26 19,2 C 18,9 C 15,6 C 85 % 1015,9 hPa 0,0 l/m 0 min 0 min 175 W/m 6,4 km/h (2 Bft) 95,74 %
27.06.2022 10:28 19,3 C 18,9 C 15,6 C 85 % 1015,8 hPa 0,0 l/m 0 min 0 min 217 W/m 3,2 km/h (1 Bft) 95,74 %
27.06.2022 10:30 19,3 C 19,4 C 15,6 C 85 % 1015,8 hPa 0,0 l/m 0 min 0 min 237 W/m 6,4 km/h (2 Bft) 95,74 %
27.06.2022 10:32 19,3 C 19,4 C 16,1 C 85 % 1015,7 hPa 0,0 l/m 0 min 0 min 258 W/m 6,4 km/h (2 Bft) 93,48 %
27.06.2022 10:34 19,3 C 19,4 C 16,1 C 85 % 1015,8 hPa 0,0 l/m 0 min 0 min 242 W/m 6,4 km/h (2 Bft) 91,49 %
27.06.2022 10:36 19,3 C 19,4 C 16,1 C 85 % 1015,9 hPa 0,0 l/m 0 min 0 min 214 W/m 6,4 km/h (2 Bft) 93,62 %
27.06.2022 10:38 19,4 C 19,4 C 16,1 C 85 % 1016,1 hPa 0,0 l/m 0 min 0 min 186 W/m 6,4 km/h (2 Bft) 93,18 %
27.06.2022 10:40 19,4 C 19,4 C 16,1 C 85 % 1016,1 hPa 0,0 l/m 0 min 0 min 164 W/m 6,4 km/h (2 Bft) 93,48 %
27.06.2022 10:42 19,5 C 19,4 C 16,1 C 85 % 1016,0 hPa 0,0 l/m 0 min 0 min 176 W/m 3,2 km/h (1 Bft) 93,62 %
27.06.2022 10:44 19,5 C 19,4 C 16,1 C 85 % 1015,9 hPa 0,0 l/m 0 min 0 min 196 W/m 6,4 km/h (2 Bft) 93,62 %
27.06.2022 10:46 19,6 C 19,4 C 16,1 C 85 % 1015,9 hPa 0,0 l/m 0 min 0 min 194 W/m 6,4 km/h (2 Bft) 91,49 %
27.06.2022 10:48 19,6 C 19,4 C 16,1 C 84 % 1015,9 hPa 0,0 l/m 0 min 0 min 185 W/m 3,2 km/h (1 Bft) 93,62 %
27.06.2022 10:50 19,6 C 19,4 C 16,1 C 84 % 1015,9 hPa 0,0 l/m 0 min 0 min 198 W/m 3,2 km/h (1 Bft) 93,62 %
27.06.2022 10:52 19,6 C 19,4 C 16,1 C 84 % 1016,0 hPa 0,0 l/m 0 min 0 min 214 W/m 6,4 km/h (2 Bft) 97,83 %
27.06.2022 10:54 19,6 C 19,4 C 16,1 C 84 % 1016,1 hPa 0,0 l/m 0 min 0 min 212 W/m 6,4 km/h (2 Bft) 97,87 %
27.06.2022 10:56 19,6 C 19,4 C 16,1 C 85 % 1016,2 hPa 0,0 l/m 0 min 0 min 200 W/m 3,2 km/h (1 Bft) 95,74 %
27.06.2022 10:58 19,7 C 19,4 C 16,1 C 85 % 1016,3 hPa 0,0 l/m 0 min 0 min 190 W/m 3,2 km/h (1 Bft) 97,87 %
27.06.2022 11:00 19,7 C 19,4 C 16,1 C 84 % 1016,3 hPa 0,0 l/m 0 min 0 min 184 W/m 3,2 km/h (1 Bft) 97,87 %
27.06.2022 11:02 19,7 C 19,4 C 16,1 C 84 % 1016,4 hPa 0,0 l/m 0 min 0 min 175 W/m 3,2 km/h (1 Bft) 95,74 %
27.06.2022 11:04 19,7 C 19,4 C 16,1 C 84 % 1016,4 hPa 0,0 l/m 0 min 0 min 147 W/m 6,4 km/h (2 Bft) 97,83 %
27.06.2022 11:06 19,7 C 19,4 C 16,1 C 84 % 1016,5 hPa 0,0 l/m 0 min 0 min 131 W/m 6,4 km/h (2 Bft) 93,62 %
27.06.2022 11:08 19,7 C 19,4 C 16,1 C 84 % 1016,4 hPa 0,0 l/m 0 min 0 min 133 W/m 6,4 km/h (2 Bft) 93,62 %
27.06.2022 11:10 19,7 C 19,4 C 16,1 C 84 % 1016,3 hPa 0,0 l/m 0 min 0 min 140 W/m 6,4 km/h (2 Bft) 100,00 %
27.06.2022 11:12 19,7 C 19,4 C 16,1 C 84 % 1016,3 hPa 0,0 l/m 0 min 0 min 140 W/m 6,4 km/h (2 Bft) 100,00 %
27.06.2022 11:14 19,7 C 19,4 C 16,1 C 84 % 1016,3 hPa 0,0 l/m 0 min 0 min 148 W/m 6,4 km/h (2 Bft) 100,00 %
27.06.2022 11:16 19,7 C 19,4 C 16,1 C 84 % 1016,3 hPa 0,0 l/m 0 min 0 min 181 W/m 3,2 km/h (1 Bft) 100,00 %
27.06.2022 11:18 19,7 C 19,4 C 16,1 C 84 % 1016,2 hPa 0,0 l/m 0 min 0 min 242 W/m 3,2 km/h (1 Bft) 100,00 %
27.06.2022 11:20 19,8 C 20,0 C 16,1 C 84 % 1016,1 hPa 0,0 l/m 0 min 0 min 268 W/m 3,2 km/h (1 Bft) 100,00 %
27.06.2022 11:22 19,8 C 20,0 C 16,1 C 84 % 1015,9 hPa 0,0 l/m 0 min 0 min 257 W/m 3,2 km/h (1 Bft) 100,00 %
27.06.2022 11:24 19,8 C 20,0 C 16,1 C 85 % 1016,0 hPa 0,0 l/m 0 min 0 min 258 W/m 3,2 km/h (1 Bft) 100,00 %
27.06.2022 11:26 19,9 C 20,0 C 16,7 C 84 % 1016,2 hPa 0,0 l/m 0 min 0 min 267 W/m 3,2 km/h (1 Bft) 100,00 %
27.06.2022 11:28 19,9 C 20,0 C 16,7 C 84 % 1016,2 hPa 0,0 l/m 0 min 0 min 283 W/m 6,4 km/h (2 Bft) 100,00 %
27.06.2022 11:30 19,9 C 20,6 C 16,7 C 84 % 1016,2 hPa 0,0 l/m 0 min 0 min 283 W/m 6,4 km/h (2 Bft) 100,00 %
27.06.2022 11:32 20,0 C 20,0 C 16,7 C 84 % 1016,3 hPa 0,0 l/m 0 min 0 min 249 W/m 6,4 km/h (2 Bft) 100,00 %
27.06.2022 11:34 20,0 C 20,0 C 16,7 C 83 % 1016,3 hPa 0,0 l/m 0 min 0 min 216 W/m 6,4 km/h (2 Bft) 100,00 %
27.06.2022 11:36 20,0 C 20,0 C 16,7 C 83 % 1016,3 hPa 0,0 l/m 0 min 0 min 188 W/m 6,4 km/h (2 Bft) 100,00 %
27.06.2022 11:38 20,0 C 20,0 C 16,1 C 83 % 1016,3 hPa 0,0 l/m 0 min 0 min 162 W/m 6,4 km/h (2 Bft) 100,00 %
27.06.2022 11:40 20,0 C 20,0 C 16,1 C 83 % 1016,3 hPa 0,0 l/m 0 min 0 min 150 W/m 3,2 km/h (1 Bft) 100,00 %
27.06.2022 11:42 20,1 C 19,4 C 16,1 C 83 % 1016,3 hPa 0,0 l/m 0 min 0 min 168 W/m 6,4 km/h (2 Bft) 95,74 %
27.06.2022 11:44 20,0 C 19,4 C 16,1 C 83 % 1016,2 hPa 0,0 l/m 0 min 0 min 208 W/m 3,2 km/h (1 Bft) 100,00 %
27.06.2022 11:46 20,0 C 20,0 C 16,1 C 83 % 1016,2 hPa 0,0 l/m 0 min 0 min 237 W/m 3,2 km/h (1 Bft) 100,00 %
27.06.2022 11:48 20,1 C 20,0 C 16,7 C 83 % 1016,2 hPa 0,0 l/m 0 min 0 min 214 W/m 3,2 km/h (1 Bft) 100,00 %
27.06.2022 11:50 20,1 C 20,0 C 16,7 C 83 % 1016,1 hPa 0,0 l/m 0 min 0 min 195 W/m 6,4 km/h (2 Bft) 100,00 %
27.06.2022 11:52 20,1 C 20,0 C 16,7 C 83 % 1016,2 hPa 0,0 l/m 0 min 0 min 189 W/m 3,2 km/h (1 Bft) 100,00 %
27.06.2022 11:54 20,1 C 20,0 C 16,7 C 83 % 1016,2 hPa 0,0 l/m 0 min 0 min 177 W/m 3,2 km/h (1 Bft) 100,00 %
27.06.2022 11:56 20,1 C 20,0 C 16,1 C 83 % 1016,2 hPa 0,0 l/m 0 min 0 min 170 W/m 3,2 km/h (1 Bft) 100,00 %
27.06.2022 11:58 20,1 C 20,0 C 16,7 C 83 % 1016,2 hPa 0,0 l/m 0 min 0 min 162 W/m 3,2 km/h (1 Bft) 100,00 %
27.06.2022 12:00 20,1 C 20,0 C 16,1 C 83 % 1016,2 hPa 0,0 l/m 0 min 0 min 153 W/m 3,2 km/h (1 Bft) 100,00 %
27.06.2022 12:02 20,1 C 20,0 C 16,1 C 82 % 1016,1 hPa 0,0 l/m 0 min 0 min 144 W/m 6,4 km/h (2 Bft) 100,00 %
27.06.2022 12:04 20,1 C 19,4 C 16,1 C 82 % 1016,0 hPa 0,0 l/m 0 min 0 min 146 W/m 3,2 km/h (1 Bft) 100,00 %
27.06.2022 12:08 20,1 C 19,4 C 16,1 C 82 % 1016,0 hPa 0,0 l/m 0 min 0 min 147 W/m 6,4 km/h (2 Bft) 100,00 %
27.06.2022 12:10 20,1 C 19,4 C 16,1 C 82 % 1015,9 hPa 0,0 l/m 0 min 0 min 151 W/m 3,2 km/h (1 Bft) 100,00 %
27.06.2022 12:12 20,1 C 20,0 C 16,1 C 83 % 1015,9 hPa 0,0 l/m 0 min 0 min 164 W/m 6,4 km/h (2 Bft) 100,00 %
27.06.2022 12:14 20,1 C 20,0 C 16,1 C 82 % 1016,1 hPa 0,0 l/m 0 min 0 min 174 W/m 6,4 km/h (2 Bft) 100,00 %
27.06.2022 12:16 20,1 C 20,0 C 16,1 C 82 % 1016,1 hPa 0,0 l/m 0 min 0 min 184 W/m 6,4 km/h (2 Bft) 100,00 %
27.06.2022 12:18 20,1 C 19,4 C 16,1 C 82 % 1016,2 hPa 0,0 l/m 0 min 0 min 187 W/m 6,4 km/h (2 Bft) 97,87 %
27.06.2022 12:20 20,1 C 20,0 C 16,1 C 83 % 1016,2 hPa 0,0 l/m 0 min 0 min 191 W/m 3,2 km/h (1 Bft) 100,00 %
27.06.2022 12:22 20,1 C 20,0 C 15,6 C 83 % 1016,2 hPa 0,0 l/m 0 min 0 min 203 W/m 6,4 km/h (2 Bft) 100,00 %
27.06.2022 12:24 20,1 C 20,0 C 15,6 C 83 % 1016,2 hPa 0,0 l/m 0 min 0 min 202 W/m 6,4 km/h (2 Bft) 100,00 %
27.06.2022 12:26 20,1 C 20,0 C 15,6 C 83 % 1016,2 hPa 0,0 l/m 0 min 0 min 183 W/m 3,2 km/h (1 Bft) 97,87 %
27.06.2022 12:28 20,1 C 20,0 C 15,6 C 84 % 1016,2 hPa 0,0 l/m 0 min 0 min 179 W/m 6,4 km/h (2 Bft) 100,00 %
27.06.2022 12:30 20,1 C 20,0 C 16,1 C 83 % 1016,1 hPa 0,0 l/m 0 min 0 min 206 W/m 3,2 km/h (1 Bft) 100,00 %
27.06.2022 12:32 20,1 C 20,0 C 16,1 C 84 % 1016,1 hPa 0,0 l/m 0 min 0 min 216 W/m 6,4 km/h (2 Bft) 100,00 %
27.06.2022 12:34 20,1 C 20,0 C 16,1 C 83 % 1016,1 hPa 0,0 l/m 0 min 0 min 212 W/m 3,2 km/h (1 Bft) 97,87 %
27.06.2022 12:36 20,1 C 20,0 C 16,1 C 83 % 1016,1 hPa 0,0 l/m 0 min 0 min 206 W/m 3,2 km/h (1 Bft) 100,00 %
27.06.2022 12:38 20,1 C 20,0 C 16,1 C 83 % 1016,1 hPa 0,0 l/m 0 min 0 min 204 W/m 3,2 km/h (1 Bft) 97,87 %
27.06.2022 12:40 20,0 C 20,0 C 16,1 C 83 % 1016,2 hPa 0,0 l/m 0 min 0 min 209 W/m 6,4 km/h (2 Bft) 95,74 %
27.06.2022 12:42 20,0 C 20,0 C 16,1 C 82 % 1016,2 hPa 0,0 l/m 0 min 0 min 219 W/m 6,4 km/h (2 Bft) 91,30 %
27.06.2022 12:44 20,0 C 20,0 C 16,1 C 83 % 1016,2 hPa 0,0 l/m 0 min 0 min 226 W/m 6,4 km/h (2 Bft) 95,74 %
27.06.2022 12:46 20,1 C 20,0 C 16,1 C 83 % 1016,2 hPa 0,0 l/m 0 min 0 min 224 W/m 6,4 km/h (2 Bft) 93,62 %
27.06.2022 12:48 20,1 C 20,0 C 16,1 C 83 % 1016,2 hPa 0,0 l/m 0 min 0 min 213 W/m 6,4 km/h (2 Bft) 95,74 %
27.06.2022 12:50 20,1 C 20,0 C 16,1 C 82 % 1016,2 hPa 0,0 l/m 0 min 0 min 203 W/m 3,2 km/h (1 Bft) 93,62 %
27.06.2022 12:52 20,1 C 20,0 C 16,1 C 83 % 1016,3 hPa 0,0 l/m 0 min 0 min 200 W/m 6,4 km/h (2 Bft) 89,36 %
27.06.2022 12:54 20,1 C 20,0 C 16,7 C 83 % 1016,2 hPa 0,0 l/m 0 min 0 min 197 W/m 3,2 km/h (1 Bft) 95,65 %
27.06.2022 12:56 20,1 C 20,0 C 16,7 C 83 % 1016,3 hPa 0,0 l/m 0 min 0 min 189 W/m 3,2 km/h (1 Bft) 95,74 %
27.06.2022 12:58 20,1 C 20,0 C 16,7 C 83 % 1016,3 hPa 0,0 l/m 0 min 0 min 181 W/m 6,4 km/h (2 Bft) 95,74 %
27.06.2022 13:00 20,1 C 20,0 C 16,7 C 82 % 1016,3 hPa 0,0 l/m 0 min 0 min 184 W/m 9,7 km/h (2 Bft) 95,74 %
27.06.2022 13:02 20,1 C 20,0 C 16,1 C 82 % 1016,3 hPa 0,0 l/m 0 min 0 min 194 W/m 16,1 km/h (3 Bft) 93,62 %
27.06.2022 13:04 20,1 C 20,0 C 16,1 C 82 % 1016,3 hPa 0,0 l/m 0 min 0 min 205 W/m 3,2 km/h (1 Bft) 93,62 %
27.06.2022 13:06 20,1 C 20,0 C 16,7 C 82 % 1016,3 hPa 0,0 l/m 0 min 0 min 214 W/m 3,2 km/h (1 Bft) 95,74 %
27.06.2022 13:08 20,1 C 20,0 C 16,7 C 82 % 1016,3 hPa 0,0 l/m 0 min 0 min 224 W/m 3,2 km/h (1 Bft) 95,65 %
27.06.2022 13:10 20,2 C 20,6 C 16,7 C 82 % 1016,2 hPa 0,0 l/m 0 min 0 min 236 W/m 3,2 km/h (1 Bft) 93,62 %
27.06.2022 13:12 20,2 C 20,6 C 16,7 C 82 % 1016,2 hPa 0,0 l/m 0 min 0 min 249 W/m 6,4 km/h (2 Bft) 93,62 %
27.06.2022 13:14 20,2 C 20,6 C 16,7 C 82 % 1016,2 hPa 0,0 l/m 0 min 0 min 258 W/m 6,4 km/h (2 Bft) 95,74 %
27.06.2022 13:16 20,2 C 20,6 C 16,7 C 81 % 1016,2 hPa 0,0 l/m 0 min 0 min 269 W/m 3,2 km/h (1 Bft) 95,74 %
27.06.2022 13:18 20,2 C 20,6 C 16,7 C 81 % 1016,3 hPa 0,0 l/m 0 min 0 min 271 W/m 6,4 km/h (2 Bft) 97,83 %
27.06.2022 13:20 20,2 C 20,6 C 16,7 C 81 % 1016,3 hPa 0,0 l/m 0 min 0 min 271 W/m 6,4 km/h (2 Bft) 95,74 %
27.06.2022 13:22 20,3 C 20,6 C 16,7 C 80 % 1016,3 hPa 0,0 l/m 0 min 0 min 269 W/m 6,4 km/h (2 Bft) 97,87 %
27.06.2022 13:24 20,3 C 20,6 C 16,7 C 80 % 1016,2 hPa 0,0 l/m 0 min 0 min 285 W/m 6,4 km/h (2 Bft) 97,87 %
27.06.2022 13:26 20,3 C 21,1 C 16,7 C 81 % 1016,3 hPa 0,0 l/m 0 min 0 min 287 W/m 0,0 km/h (0 Bft) 97,87 %
27.06.2022 13:28 20,4 C 21,1 C 16,7 C 81 % 1016,4 hPa 0,0 l/m 0 min 0 min 293 W/m 3,2 km/h (1 Bft) 93,62 %
27.06.2022 13:30 20,4 C 21,1 C 16,7 C 81 % 1016,4 hPa 0,0 l/m 0 min 0 min 292 W/m 6,4 km/h (2 Bft) 95,65 %
27.06.2022 13:32 20,4 C 21,1 C 16,7 C 80 % 1016,3 hPa 0,0 l/m 0 min 0 min 293 W/m 3,2 km/h (1 Bft) 97,87 %
27.06.2022 13:34 20,4 C 21,1 C 16,7 C 80 % 1016,3 hPa 0,0 l/m 0 min 0 min 314 W/m 3,2 km/h (1 Bft) 97,87 %
27.06.2022 13:36 20,5 C 21,1 C 17,2 C 80 % 1016,3 hPa 0,0 l/m 0 min 0 min 338 W/m 6,4 km/h (2 Bft) 97,87 %
27.06.2022 13:38 20,6 C 21,1 C 17,2 C 80 % 1016,3 hPa 0,0 l/m 0 min 0 min 412 W/m 3,2 km/h (1 Bft) 97,87 %
27.06.2022 13:40 20,6 C 21,7 C 17,2 C 80 % 1016,3 hPa 0,0 l/m 0 min 0 min 441 W/m 3,2 km/h (1 Bft) 97,87 %
27.06.2022 13:42 20,7 C 21,7 C 17,8 C 80 % 1016,3 hPa 0,0 l/m 0 min 0 min 439 W/m 6,4 km/h (2 Bft) 97,83 %
27.06.2022 13:44 20,7 C 21,7 C 17,8 C 79 % 1016,3 hPa 0,0 l/m 0 min 0 min 415 W/m 3,2 km/h (1 Bft) 97,87 %
27.06.2022 13:46 20,8 C 21,7 C 17,8 C 78 % 1016,3 hPa 0,0 l/m 0 min 0 min 356 W/m 9,7 km/h (2 Bft) 97,87 %
27.06.2022 13:48 20,8 C 21,7 C 17,8 C 78 % 1016,3 hPa 0,0 l/m 0 min 0 min 345 W/m 3,2 km/h (1 Bft) 97,87 %
27.06.2022 13:50 20,9 C 21,7 C 17,8 C 78 % 1016,3 hPa 0,0 l/m 0 min 0 min 342 W/m 9,7 km/h (2 Bft) 97,87 %
27.06.2022 13:54 21,0 C 21,7 C 17,8 C 77 % 1016,3 hPa 0,0 l/m 0 min 0 min 404 W/m 3,2 km/h (1 Bft) 98,25 %
27.06.2022 13:56 21,1 C 22,2 C 17,8 C 77 % 1016,3 hPa 0,0 l/m 2 min 0 min 472 W/m 6,4 km/h (2 Bft) 97,87 %
27.06.2022 13:58 21,1 C 22,2 C 18,3 C 77 % 1016,3 hPa 0,0 l/m 2 min 0 min 478 W/m 3,2 km/h (1 Bft) 97,87 %
27.06.2022 14:00 21,2 C 22,2 C 18,3 C 77 % 1016,4 hPa 0,0 l/m 0 min 0 min 439 W/m 12,9 km/h (3 Bft) 97,87 %
27.06.2022 14:02 21,2 C 22,2 C 18,3 C 77 % 1016,4 hPa 0,0 l/m 0 min 0 min 318 W/m 9,7 km/h (2 Bft) 93,48 %
27.06.2022 14:04 21,3 C 22,2 C 18,3 C 77 % 1016,4 hPa 0,0 l/m 0 min 0 min 260 W/m 16,1 km/h (3 Bft) 97,87 %
27.06.2022 14:06 21,3 C 21,7 C 17,8 C 76 % 1016,4 hPa 0,0 l/m 0 min 0 min 250 W/m 6,4 km/h (2 Bft) 97,87 %
27.06.2022 14:08 21,3 C 21,7 C 17,8 C 75 % 1016,4 hPa 0,0 l/m 0 min 0 min 232 W/m 6,4 km/h (2 Bft) 97,87 %
27.06.2022 14:10 21,3 C 21,1 C 17,8 C 75 % 1016,5 hPa 0,0 l/m 0 min 0 min 208 W/m 3,2 km/h (1 Bft) 97,87 %
27.06.2022 14:12 21,3 C 21,1 C 17,8 C 75 % 1016,5 hPa 0,0 l/m 0 min 0 min 201 W/m 3,2 km/h (1 Bft) 97,87 %
27.06.2022 14:14 21,2 C 21,1 C 17,8 C 74 % 1016,5 hPa 0,0 l/m 0 min 0 min 192 W/m 9,7 km/h (2 Bft) 97,83 %
27.06.2022 14:16 21,2 C 21,1 C 17,2 C 74 % 1016,5 hPa 0,0 l/m 0 min 0 min 195 W/m 9,7 km/h (2 Bft) 97,87 %
27.06.2022 14:18 21,2 C 21,1 C 17,2 C 73 % 1016,5 hPa 0,0 l/m 0 min 0 min 221 W/m 3,2 km/h (1 Bft) 100,00 %
27.06.2022 14:20 21,2 C 21,1 C 17,2 C 74 % 1016,5 hPa 0,0 l/m 0 min 0 min 260 W/m 6,4 km/h (2 Bft) 100,00 %
27.06.2022 14:22 21,1 C 21,1 C 17,2 C 73 % 1016,4 hPa 0,0 l/m 0 min 0 min 306 W/m 6,4 km/h (2 Bft) 100,00 %
27.06.2022 14:24 21,2 C 21,1 C 17,8 C 73 % 1016,5 hPa 0,0 l/m 0 min 0 min 315 W/m 6,4 km/h (2 Bft) 97,87 %
27.06.2022 14:26 21,2 C 21,7 C 17,8 C 73 % 1016,4 hPa 0,0 l/m 0 min 0 min 323 W/m 3,2 km/h (1 Bft) 100,00 %
27.06.2022 14:28 21,2 C 21,7 C 17,8 C 73 % 1016,4 hPa 0,0 l/m 0 min 0 min 349 W/m 3,2 km/h (1 Bft) 100,00 %
27.06.2022 14:30 21,3 C 21,7 C 17,8 C 73 % 1016,3 hPa 0,0 l/m 0 min 0 min 399 W/m 6,4 km/h (2 Bft) 100,00 %
27.06.2022 14:32 21,3 C 22,2 C 17,8 C 72 % 1016,3 hPa 0,0 l/m 2 min 0 min 473 W/m 3,2 km/h (1 Bft) 100,00 %
27.06.2022 14:34 21,3 C 22,2 C 18,3 C 72 % 1016,4 hPa 0,0 l/m 2 min 0 min 474 W/m 9,7 km/h (2 Bft) 100,00 %
27.06.2022 14:36 21,3 C 22,2 C 18,3 C 71 % 1016,4 hPa 0,0 l/m 0 min 0 min 378 W/m 9,7 km/h (2 Bft) 100,00 %
27.06.2022 14:38 21,4 C 22,2 C 18,3 C 70 % 1016,4 hPa 0,0 l/m 0 min 0 min 410 W/m 3,2 km/h (1 Bft) 100,00 %
27.06.2022 14:40 21,5 C 22,8 C 18,3 C 69 % 1016,3 hPa 0,0 l/m 2 min 0 min 528 W/m 3,2 km/h (1 Bft) 100,00 %
27.06.2022 14:42 21,6 C 22,8 C 18,3 C 70 % 1016,2 hPa 0,0 l/m 0 min 0 min 376 W/m 6,4 km/h (2 Bft) 100,00 %
27.06.2022 14:44 21,6 C 22,8 C 18,3 C 68 % 1016,2 hPa 0,0 l/m 2 min 0 min 494 W/m 6,4 km/h (2 Bft) 100,00 %
27.06.2022 14:46 21,7 C 22,8 C 18,3 C 69 % 1016,2 hPa 0,0 l/m 2 min 0 min 497 W/m 3,2 km/h (1 Bft) 100,00 %
27.06.2022 14:48 21,7 C 23,3 C 18,3 C 69 % 1016,2 hPa 0,0 l/m 0 min 0 min 411 W/m 6,4 km/h (2 Bft) 93,62 %
27.06.2022 14:50 21,8 C 23,3 C 18,3 C 68 % 1016,2 hPa 0,0 l/m 0 min 0 min 426 W/m 3,2 km/h (1 Bft) 97,83 %
27.06.2022 14:52 21,8 C 23,3 C 18,9 C 69 % 1016,1 hPa 0,0 l/m 2 min 0 min 567 W/m 3,2 km/h (1 Bft) 97,87 %
27.06.2022 14:54 21,9 C 23,3 C 18,9 C 69 % 1016,1 hPa 0,0 l/m 2 min 0 min 548 W/m 6,4 km/h (2 Bft) 97,87 %
27.06.2022 14:56 22,0 C 23,3 C 18,9 C 70 % 1016,2 hPa 0,0 l/m 2 min 0 min 438 W/m 9,7 km/h (2 Bft) 100,00 %
27.06.2022 14:58 22,1 C 23,3 C 18,9 C 70 % 1016,2 hPa 0,0 l/m 2 min 0 min 499 W/m 9,7 km/h (2 Bft) 97,87 %
27.06.2022 15:00 22,2 C 23,9 C 18,9 C 69 % 1016,1 hPa 0,0 l/m 2 min 0 min 540 W/m 6,4 km/h (2 Bft) 97,87 %
27.06.2022 15:02 22,3 C 23,9 C 18,9 C 69 % 1016,2 hPa 0,0 l/m 2 min 0 min 573 W/m 16,1 km/h (3 Bft) 97,83 %
27.06.2022 15:04 22,3 C 23,9 C 18,9 C 68 % 1016,3 hPa 0,0 l/m 2 min 0 min 523 W/m 12,9 km/h (3 Bft) 97,87 %
27.06.2022 15:06 22,4 C 23,3 C 18,9 C 68 % 1016,3 hPa 0,0 l/m 2 min 0 min 490 W/m 6,4 km/h (2 Bft) 95,74 %
27.06.2022 15:08 22,4 C 23,9 C 18,9 C 68 % 1016,2 hPa 0,0 l/m 2 min 0 min 579 W/m 3,2 km/h (1 Bft) 95,74 %
27.06.2022 15:10 22,5 C 23,9 C 18,9 C 68 % 1016,3 hPa 0,0 l/m 2 min 0 min 617 W/m 6,4 km/h (2 Bft) 93,62 %
27.06.2022 15:12 22,6 C 23,9 C 18,9 C 67 % 1016,3 hPa 0,0 l/m 2 min 0 min 612 W/m 9,7 km/h (2 Bft) 97,14 %
27.06.2022 15:14 22,7 C 23,3 C 18,9 C 68 % 1016,4 hPa 0,0 l/m 0 min 0 min 406 W/m 16,1 km/h (3 Bft) 93,33 %
27.06.2022 15:16 22,6 C 23,3 C 18,9 C 68 % 1016,4 hPa 0,0 l/m 0 min 0 min 409 W/m 12,9 km/h (3 Bft) 95,74 %
27.06.2022 15:18 22,6 C 23,9 C 18,9 C 68 % 1016,5 hPa 0,0 l/m 2 min 0 min 529 W/m 3,2 km/h (1 Bft) 95,65 %
27.06.2022 15:20 22,7 C 23,9 C 18,9 C 68 % 1016,5 hPa 0,0 l/m 2 min 0 min 591 W/m 12,9 km/h (3 Bft) 95,74 %
27.06.2022 15:22 22,7 C 24,4 C 18,9 C 69 % 1016,5 hPa 0,0 l/m 2 min 0 min 621 W/m 12,9 km/h (3 Bft) 97,87 %
27.06.2022 15:24 22,8 C 23,9 C 18,9 C 68 % 1016,5 hPa 0,0 l/m 2 min 0 min 539 W/m 6,4 km/h (2 Bft) 97,87 %
27.06.2022 15:26 22,8 C 24,4 C 18,9 C 68 % 1016,5 hPa 0,0 l/m 2 min 0 min 518 W/m 9,7 km/h (2 Bft) 97,87 %
27.06.2022 15:28 22,9 C 25,0 C 18,9 C 67 % 1016,5 hPa 0,0 l/m 2 min 0 min 720 W/m 9,7 km/h (2 Bft) 95,74 %
27.06.2022 15:30 23,0 C 25,0 C 19,4 C 66 % 1016,5 hPa 0,0 l/m 2 min 0 min 662 W/m 19,3 km/h (3 Bft) 97,83 %
27.06.2022 15:32 23,1 C 24,4 C 19,4 C 65 % 1016,5 hPa 0,0 l/m 2 min 0 min 459 W/m 9,7 km/h (2 Bft) 97,87 %
27.06.2022 15:34 23,1 C 23,9 C 18,9 C 63 % 1016,6 hPa 0,0 l/m 0 min 0 min 368 W/m 12,9 km/h (3 Bft) 97,87 %
27.06.2022 15:36 23,1 C 23,3 C 18,9 C 64 % 1016,6 hPa 0,0 l/m 0 min 0 min 275 W/m 16,1 km/h (3 Bft) 97,87 %
27.06.2022 15:38 23,1 C 23,9 C 18,9 C 63 % 1016,5 hPa 0,0 l/m 0 min 0 min 396 W/m 16,1 km/h (3 Bft) 100,00 %
27.06.2022 15:40 23,1 C 24,4 C 18,9 C 62 % 1016,6 hPa 0,0 l/m 2 min 0 min 708 W/m 3,2 km/h (1 Bft) 97,87 %
27.06.2022 15:42 23,1 C 25,0 C 18,9 C 64 % 1016,7 hPa 0,0 l/m 2 min 0 min 812 W/m 6,4 km/h (2 Bft) 100,00 %
27.06.2022 15:44 23,2 C 25,6 C 19,4 C 64 % 1016,7 hPa 0,0 l/m 2 min 0 min 738 W/m 19,3 km/h (3 Bft) 95,74 %
27.06.2022 15:46 23,3 C 26,1 C 19,4 C 63 % 1016,8 hPa 0,0 l/m 2 min 0 min 784 W/m 6,4 km/h (2 Bft) 95,74 %
27.06.2022 15:48 23,4 C 25,6 C 19,4 C 63 % 1016,7 hPa 0,0 l/m 2 min 0 min 781 W/m 19,3 km/h (3 Bft) 97,87 %
27.06.2022 15:50 23,4 C 25,6 C 19,4 C 63 % 1016,7 hPa 0,0 l/m 2 min 0 min 607 W/m 16,1 km/h (3 Bft) 100,00 %
27.06.2022 15:52 23,5 C 25,6 C 19,4 C 63 % 1016,7 hPa 0,0 l/m 2 min 0 min 539 W/m 22,5 km/h (4 Bft) 97,87 %
27.06.2022 15:54 23,5 C 25,0 C 19,4 C 63 % 1016,7 hPa 0,0 l/m 2 min 0 min 562 W/m 19,3 km/h (3 Bft) 100,00 %
27.06.2022 15:56 23,6 C 25,0 C 19,4 C 63 % 1016,7 hPa 0,0 l/m 2 min 0 min 432 W/m 16,1 km/h (3 Bft) 100,00 %
27.06.2022 15:58 23,6 C 25,0 C 19,4 C 63 % 1016,7 hPa 0,0 l/m 2 min 0 min 465 W/m 12,9 km/h (3 Bft) 100,00 %
27.06.2022 16:00 23,6 C 23,9 C 19,4 C 63 % 1016,7 hPa 0,0 l/m 0 min 0 min 338 W/m 6,4 km/h (2 Bft) 100,00 %
27.06.2022 16:02 23,6 C 23,9 C 19,4 C 64 % 1016,7 hPa 0,0 l/m 0 min 0 min 320 W/m 6,4 km/h (2 Bft) 97,87 %
27.06.2022 16:04 23,6 C 23,3 C 19,4 C 64 % 1016,8 hPa 0,0 l/m 0 min 0 min 232 W/m 12,9 km/h (3 Bft) 100,00 %
27.06.2022 16:06 23,6 C 23,3 C 18,9 C 65 % 1016,9 hPa 0,0 l/m 0 min 0 min 183 W/m 12,9 km/h (3 Bft) 100,00 %
27.06.2022 16:08 23,5 C 22,8 C 18,9 C 65 % 1016,9 hPa 0,0 l/m 0 min 0 min 137 W/m 12,9 km/h (3 Bft) 97,87 %
27.06.2022 16:10 23,4 C 22,8 C 18,9 C 65 % 1017,0 hPa 0,0 l/m 0 min 0 min 108 W/m 9,7 km/h (2 Bft) 100,00 %
27.06.2022 16:12 23,2 C 22,2 C 18,9 C 65 % 1017,0 hPa 0,0 l/m 0 min 0 min 98 W/m 12,9 km/h (3 Bft) 100,00 %
27.06.2022 16:14 23,1 C 22,2 C 18,3 C 66 % 1017,1 hPa 0,0 l/m 0 min 0 min 72 W/m 9,7 km/h (2 Bft) 100,00 %
27.06.2022 16:16 23,0 C 21,7 C 18,3 C 67 % 1017,3 hPa 0,0 l/m 0 min 0 min 30 W/m 6,4 km/h (2 Bft) 97,87 %
27.06.2022 16:18 22,8 C 21,1 C 18,3 C 67 % 1017,9 hPa 0,0 l/m 0 min 0 min 13 W/m 25,7 km/h (4 Bft) 100,00 %
27.06.2022 16:20 21,9 C 19,4 C 16,1 C 68 % 1018,0 hPa 0,0 l/m 0 min 2 min 7 W/m 29,0 km/h (5 Bft) 100,00 %
27.06.2022 16:22 20,6 C 16,7 C 13,3 C 72 % 1018,3 hPa 0,2 l/m 0 min 2 min 8 W/m 29,0 km/h (5 Bft) 97,87 %
27.06.2022 16:24 19,4 C 15,0 C 11,7 C 76 % 1018,4 hPa 0,6 l/m 0 min 2 min 10 W/m 22,5 km/h (4 Bft) 100,00 %
27.06.2022 16:26 18,6 C 14,4 C 11,1 C 80 % 1018,4 hPa 0,8 l/m 0 min 2 min 15 W/m 22,5 km/h (4 Bft) 97,87 %
27.06.2022 16:28 17,7 C 14,4 C 11,1 C 83 % 1018,5 hPa 1,0 l/m 0 min 2 min 26 W/m 19,3 km/h (3 Bft) 100,00 %
27.06.2022 16:30 17,2 C 14,4 C 11,1 C 85 % 1018,4 hPa 0,8 l/m 0 min 2 min 38 W/m 19,3 km/h (3 Bft) 100,00 %
27.06.2022 16:32 16,8 C 14,4 C 11,1 C 87 % 1018,5 hPa 0,6 l/m 0 min 2 min 46 W/m 16,1 km/h (3 Bft) 100,00 %
27.06.2022 16:34 16,5 C 13,9 C 11,1 C 88 % 1018,5 hPa 0,4 l/m 0 min 2 min 51 W/m 29,0 km/h (5 Bft) 100,00 %
27.06.2022 16:36 16,1 C 13,9 C 10,6 C 89 % 1018,5 hPa 0,2 l/m 0 min 2 min 50 W/m 22,5 km/h (4 Bft) 97,87 %
27.06.2022 16:38 15,9 C 13,9 C 10,6 C 90 % 1018,4 hPa 0,2 l/m 0 min 2 min 53 W/m 19,3 km/h (3 Bft) 100,00 %
27.06.2022 16:40 15,7 C 13,9 C 10,6 C 91 % 1018,5 hPa 0,0 l/m 0 min 2 min 72 W/m 32,2 km/h (5 Bft) 95,74 %
27.06.2022 16:42 15,6 C 13,9 C 10,6 C 91 % 1018,5 hPa 0,0 l/m 0 min 2 min 115 W/m 22,5 km/h (4 Bft) 95,65 %
27.06.2022 16:44 15,5 C 13,9 C 10,6 C 92 % 1018,4 hPa 0,2 l/m 0 min 2 min 172 W/m 25,7 km/h (4 Bft) 97,87 %
27.06.2022 16:46 15,4 C 13,9 C 11,1 C 92 % 1018,4 hPa 0,0 l/m 0 min 0 min 199 W/m 16,1 km/h (3 Bft) 93,62 %
27.06.2022 16:48 15,5 C 14,4 C 11,1 C 93 % 1018,3 hPa 0,0 l/m 0 min 0 min 212 W/m 16,1 km/h (3 Bft) 95,74 %
27.06.2022 16:50 15,6 C 14,4 C 11,1 C 93 % 1018,3 hPa 0,0 l/m 0 min 0 min 230 W/m 16,1 km/h (3 Bft) 95,74 %
27.06.2022 16:52 15,6 C 15,0 C 11,1 C 94 % 1018,3 hPa 0,0 l/m 0 min 0 min 256 W/m 12,9 km/h (3 Bft) 95,74 %
27.06.2022 16:54 15,6 C 15,0 C 11,7 C 94 % 1018,3 hPa 0,0 l/m 0 min 0 min 289 W/m 12,9 km/h (3 Bft) 97,83 %
27.06.2022 16:56 15,7 C 15,0 C 11,1 C 94 % 1018,3 hPa 0,0 l/m 0 min 0 min 283 W/m 25,7 km/h (4 Bft) 95,74 %
27.06.2022 16:58 15,7 C 15,6 C 11,1 C 94 % 1018,3 hPa 0,0 l/m 0 min 0 min 264 W/m 19,3 km/h (3 Bft) 93,62 %
27.06.2022 17:00 15,7 C 15,6 C 11,1 C 95 % 1018,4 hPa 0,0 l/m 0 min 0 min 279 W/m 16,1 km/h (3 Bft) 95,74 %
27.06.2022 17:02 15,8 C 16,1 C 11,7 C 95 % 1018,4 hPa 0,0 l/m 2 min 2 min 386 W/m 16,1 km/h (3 Bft) 93,62 %
27.06.2022 17:04 15,8 C 17,2 C 11,7 C 95 % 1018,4 hPa 0,0 l/m 2 min 0 min 451 W/m 12,9 km/h (3 Bft) 93,62 %
27.06.2022 17:06 16,0 C 16,7 C 12,2 C 95 % 1018,4 hPa 0,0 l/m 2 min 0 min 399 W/m 16,1 km/h (3 Bft) 95,65 %
27.06.2022 17:08 16,1 C 16,7 C 12,2 C 95 % 1018,4 hPa 0,0 l/m 0 min 0 min 289 W/m 12,9 km/h (3 Bft) 95,74 %
27.06.2022 17:10 16,2 C 16,1 C 12,2 C 95 % 1018,4 hPa 0,0 l/m 0 min 0 min 278 W/m 19,3 km/h (3 Bft) 95,74 %
27.06.2022 17:12 16,2 C 16,1 C 12,2 C 95 % 1018,5 hPa 0,0 l/m 0 min 0 min 256 W/m 6,4 km/h (2 Bft) 95,74 %
27.06.2022 17:14 16,2 C 16,1 C 12,2 C 95 % 1018,5 hPa 0,0 l/m 0 min 0 min 216 W/m 9,7 km/h (2 Bft) 95,74 %
27.06.2022 17:16 16,3 C 16,1 C 11,7 C 95 % 1018,6 hPa 0,0 l/m 0 min 0 min 180 W/m 12,9 km/h (3 Bft) 93,48 %
27.06.2022 17:18 16,2 C 16,1 C 11,7 C 95 % 1018,6 hPa 0,0 l/m 0 min 0 min 149 W/m 25,7 km/h (4 Bft) 93,62 %
27.06.2022 17:20 16,1 C 15,6 C 11,7 C 95 % 1018,6 hPa 0,0 l/m 0 min 0 min 133 W/m 19,3 km/h (3 Bft) 97,87 %
27.06.2022 17:22 16,1 C 15,6 C 11,1 C 94 % 1018,5 hPa 0,0 l/m 0 min 0 min 126 W/m 25,7 km/h (4 Bft) 97,87 %
27.06.2022 17:24 16,0 C 15,6 C 11,1 C 94 % 1018,6 hPa 0,0 l/m 0 min 0 min 122 W/m 22,5 km/h (4 Bft) 97,87 %
27.06.2022 17:26 16,0 C 15,6 C 11,1 C 94 % 1018,6 hPa 0,0 l/m 0 min 0 min 118 W/m 12,9 km/h (3 Bft) 97,87 %
27.06.2022 17:28 15,9 C 15,6 C 11,1 C 94 % 1018,7 hPa 0,0 l/m 0 min 0 min 112 W/m 12,9 km/h (3 Bft) 97,83 %
27.06.2022 17:30 15,9 C 15,6 C 11,1 C 93 % 1018,7 hPa 0,0 l/m 0 min 0 min 101 W/m 12,9 km/h (3 Bft) 100,00 %
27.06.2022 17:32 15,9 C 15,6 C 11,1 C 93 % 1018,8 hPa 0,0 l/m 0 min 0 min 79 W/m 19,3 km/h (3 Bft) 100,00 %
27.06.2022 17:34 15,8 C 15,6 C 11,1 C 93 % 1018,9 hPa 0,0 l/m 0 min 0 min 83 W/m 12,9 km/h (3 Bft) 100,00 %
27.06.2022 17:36 15,8 C 15,0 C 11,1 C 93 % 1018,9 hPa 0,0 l/m 0 min 0 min 82 W/m 16,1 km/h (3 Bft) 100,00 %
27.06.2022 17:38 15,8 C 15,0 C 11,1 C 93 % 1018,9 hPa 0,0 l/m 0 min 0 min 74 W/m 9,7 km/h (2 Bft) 100,00 %
27.06.2022 17:40 15,7 C 15,0 C 11,1 C 93 % 1018,9 hPa 0,0 l/m 0 min 0 min 49 W/m 16,1 km/h (3 Bft) 100,00 %
27.06.2022 17:42 15,7 C 15,0 C 10,6 C 93 % 1018,8 hPa 0,0 l/m 0 min 0 min 53 W/m 16,1 km/h (3 Bft) 100,00 %
27.06.2022 17:44 15,7 C 15,0 C 11,1 C 93 % 1018,8 hPa 0,0 l/m 0 min 0 min 56 W/m 9,7 km/h (2 Bft) 100,00 %
27.06.2022 17:46 15,7 C 15,6 C 11,1 C 93 % 1018,7 hPa 0,0 l/m 0 min 0 min 76 W/m 9,7 km/h (2 Bft) 100,00 %
27.06.2022 17:48 15,8 C 15,6 C 11,1 C 93 % 1018,7 hPa 0,0 l/m 0 min 0 min 84 W/m 9,7 km/h (2 Bft) 97,87 %
27.06.2022 17:50 15,8 C 15,6 C 11,1 C 93 % 1018,7 hPa 0,0 l/m 0 min 0 min 76 W/m 6,4 km/h (2 Bft) 100,00 %
27.06.2022 17:52 15,9 C 15,6 C 11,1 C 93 % 1018,7 hPa 0,0 l/m 0 min 0 min 91 W/m 6,4 km/h (2 Bft) 97,83 %
27.06.2022 17:54 15,9 C 15,6 C 11,1 C 93 % 1018,7 hPa 0,0 l/m 0 min 0 min 97 W/m 6,4 km/h (2 Bft) 97,87 %
27.06.2022 17:56 15,9 C 15,6 C 11,1 C 93 % 1018,8 hPa 0,0 l/m 0 min 0 min 88 W/m 3,2 km/h (1 Bft) 95,74 %
27.06.2022 17:58 15,9 C 15,6 C 11,1 C 93 % 1018,7 hPa 0,0 l/m 0 min 0 min 104 W/m 6,4 km/h (2 Bft) 97,87 %
27.06.2022 18:00 15,9 C 15,6 C 11,1 C 93 % 1018,8 hPa 0,0 l/m 0 min 0 min 145 W/m 3,2 km/h (1 Bft) 97,87 %
27.06.2022 18:02 16,0 C 16,1 C 11,7 C 93 % 1018,7 hPa 0,0 l/m 0 min 0 min 178 W/m 6,4 km/h (2 Bft) 97,87 %
27.06.2022 18:04 16,1 C 16,1 C 11,7 C 93 % 1018,8 hPa 0,0 l/m 0 min 0 min 174 W/m 3,2 km/h (1 Bft) 95,65 %
27.06.2022 18:07 16,1 C 16,1 C 11,1 C 93 % 1018,8 hPa 0,0 l/m 0 min 0 min 138 W/m 6,4 km/h (2 Bft) 97,18 %
27.06.2022 18:08 16,1 C 16,1 C 11,1 C 93 % 1018,8 hPa 0,0 l/m 0 min 0 min 142 W/m 3,2 km/h (1 Bft) 95,65 %
27.06.2022 18:10 16,1 C 16,1 C 11,1 C 93 % 1018,8 hPa 0,0 l/m 0 min 0 min 142 W/m 3,2 km/h (1 Bft) 97,87 %
27.06.2022 18:12 16,1 C 16,1 C 11,7 C 93 % 1018,8 hPa 0,0 l/m 0 min 0 min 140 W/m 6,4 km/h (2 Bft) 97,87 %
27.06.2022 18:14 16,2 C 16,1 C 11,7 C 93 % 1018,9 hPa 0,0 l/m 0 min 0 min 148 W/m 6,4 km/h (2 Bft) 97,87 %
27.06.2022 18:16 16,2 C 16,1 C 11,7 C 93 % 1018,8 hPa 0,0 l/m 0 min 0 min 152 W/m 3,2 km/h (1 Bft) 97,87 %
27.06.2022 18:18 16,2 C 16,1 C 11,7 C 93 % 1018,9 hPa 0,0 l/m 0 min 0 min 152 W/m 3,2 km/h (1 Bft) 95,65 %
27.06.2022 18:20 16,3 C 16,1 C 11,7 C 93 % 1019,0 hPa 0,0 l/m 0 min 0 min 163 W/m 6,4 km/h (2 Bft) 97,87 %
27.06.2022 18:22 16,3 C 16,1 C 11,7 C 93 % 1019,0 hPa 0,0 l/m 0 min 0 min 165 W/m 6,4 km/h (2 Bft) 95,74 %
27.06.2022 18:24 16,3 C 16,7 C 11,7 C 93 % 1018,9 hPa 0,0 l/m 0 min 0 min 160 W/m 3,2 km/h (1 Bft) 97,87 %
27.06.2022 18:26 16,3 C 16,7 C 11,7 C 93 % 1019,0 hPa 0,0 l/m 0 min 0 min 131 W/m 3,2 km/h (1 Bft) 95,74 %
27.06.2022 18:28 16,4 C 16,7 C 11,7 C 92 % 1019,0 hPa 0,0 l/m 0 min 0 min 99 W/m 3,2 km/h (1 Bft) 95,65 %
27.06.2022 18:30 16,4 C 16,7 C 11,7 C 92 % 1018,9 hPa 0,0 l/m 0 min 0 min 94 W/m 6,4 km/h (2 Bft) 97,87 %
27.06.2022 18:32 16,4 C 16,1 C 11,7 C 92 % 1018,9 hPa 0,0 l/m 0 min 0 min 125 W/m 3,2 km/h (1 Bft) 93,62 %
27.06.2022 18:34 16,4 C 16,1 C 11,1 C 92 % 1018,9 hPa 0,0 l/m 0 min 0 min 152 W/m 6,4 km/h (2 Bft) 95,74 %
27.06.2022 18:36 16,5 C 16,7 C 11,7 C 92 % 1018,9 hPa 0,0 l/m 0 min 0 min 137 W/m 3,2 km/h (1 Bft) 97,87 %
27.06.2022 18:38 16,6 C 16,7 C 11,7 C 92 % 1019,0 hPa 0,0 l/m 0 min 0 min 134 W/m 6,4 km/h (2 Bft) 95,74 %
27.06.2022 18:40 16,6 C 16,7 C 11,7 C 92 % 1019,0 hPa 0,0 l/m 0 min 0 min 140 W/m 3,2 km/h (1 Bft) 97,83 %
27.06.2022 18:42 16,6 C 16,7 C 11,7 C 92 % 1019,1 hPa 0,0 l/m 0 min 0 min 141 W/m 3,2 km/h (1 Bft) 97,87 %
27.06.2022 18:44 16,7 C 16,7 C 12,2 C 92 % 1019,1 hPa 0,0 l/m 0 min 0 min 141 W/m 6,4 km/h (2 Bft) 97,87 %
27.06.2022 18:46 16,7 C 16,7 C 12,2 C 92 % 1019,1 hPa 0,0 l/m 0 min 0 min 141 W/m 6,4 km/h (2 Bft) 97,87 %
27.06.2022 18:48 16,7 C 16,7 C 11,7 C 92 % 1019,1 hPa 0,0 l/m 0 min 0 min 140 W/m 6,4 km/h (2 Bft) 97,87 %
27.06.2022 18:50 16,7 C 16,7 C 12,2 C 92 % 1019,1 hPa 0,0 l/m 0 min 0 min 137 W/m 9,7 km/h (2 Bft) 97,87 %
27.06.2022 18:52 16,7 C 16,7 C 12,2 C 91 % 1019,1 hPa 0,0 l/m 0 min 0 min 162 W/m 6,4 km/h (2 Bft) 95,65 %
27.06.2022 18:54 16,7 C 16,7 C 12,2 C 91 % 1019,1 hPa 0,0 l/m 0 min 0 min 168 W/m 9,7 km/h (2 Bft) 97,87 %
27.06.2022 18:56 16,7 C 16,7 C 12,2 C 91 % 1019,1 hPa 0,0 l/m 0 min 0 min 155 W/m 9,7 km/h (2 Bft) 97,87 %
27.06.2022 18:58 16,7 C 16,7 C 12,2 C 91 % 1019,1 hPa 0,0 l/m 0 min 0 min 132 W/m 6,4 km/h (2 Bft) 97,87 %
27.06.2022 19:00 16,8 C 16,7 C 12,2 C 91 % 1019,1 hPa 0,0 l/m 0 min 0 min 97 W/m 6,4 km/h (2 Bft) 97,87 %
27.06.2022 19:02 16,8 C 16,7 C 12,2 C 91 % 1019,1 hPa 0,0 l/m 0 min 0 min 133 W/m 6,4 km/h (2 Bft) 97,87 %
27.06.2022 19:04 16,8 C 17,2 C 12,2 C 91 % 1019,1 hPa 0,0 l/m 2 min 0 min 285 W/m 12,9 km/h (3 Bft) 97,83 %
27.06.2022 19:06 16,8 C 17,8 C 12,8 C 91 % 1019,1 hPa 0,0 l/m 2 min 0 min 380 W/m 12,9 km/h (3 Bft) 97,87 %
27.06.2022 19:08 16,9 C 18,3 C 12,8 C 91 % 1019,1 hPa 0,0 l/m 2 min 0 min 342 W/m 6,4 km/h (2 Bft) 97,87 %
27.06.2022 19:10 17,1 C 18,3 C 12,8 C 91 % 1019,1 hPa 0,0 l/m 2 min 0 min 288 W/m 6,4 km/h (2 Bft) 97,87 %
27.06.2022 19:12 17,1 C 17,8 C 12,8 C 90 % 1019,2 hPa 0,0 l/m 2 min 0 min 306 W/m 9,7 km/h (2 Bft) 97,87 %
27.06.2022 19:14 17,1 C 17,8 C 12,8 C 90 % 1019,1 hPa 0,0 l/m 2 min 0 min 292 W/m 6,4 km/h (2 Bft) 100,00 %
27.06.2022 19:16 17,1 C 18,3 C 12,8 C 90 % 1019,2 hPa 0,0 l/m 2 min 0 min 437 W/m 3,2 km/h (1 Bft) 97,83 %
27.06.2022 19:18 17,2 C 18,3 C 12,8 C 90 % 1019,2 hPa 0,0 l/m 2 min 0 min 260 W/m 6,4 km/h (2 Bft) 100,00 %
27.06.2022 19:20 17,3 C 18,3 C 12,8 C 90 % 1019,2 hPa 0,0 l/m 2 min 0 min 245 W/m 3,2 km/h (1 Bft) 95,74 %
27.06.2022 19:22 17,4 C 17,8 C 12,8 C 90 % 1019,2 hPa 0,0 l/m 2 min 0 min 231 W/m 6,4 km/h (2 Bft) 97,87 %
27.06.2022 19:24 17,4 C 17,8 C 12,8 C 89 % 1019,3 hPa 0,0 l/m 2 min 0 min 222 W/m 3,2 km/h (1 Bft) 100,00 %
27.06.2022 19:26 17,5 C 17,8 C 12,8 C 89 % 1019,3 hPa 0,0 l/m 2 min 0 min 200 W/m 12,9 km/h (3 Bft) 97,87 %
27.06.2022 19:28 17,5 C 17,8 C 12,8 C 89 % 1019,2 hPa 0,0 l/m 2 min 0 min 210 W/m 6,4 km/h (2 Bft) 100,00 %
27.06.2022 19:30 17,5 C 17,8 C 12,8 C 89 % 1019,3 hPa 0,0 l/m 0 min 0 min 129 W/m 9,7 km/h (2 Bft) 100,00 %
27.06.2022 19:32 17,4 C 17,2 C 12,8 C 88 % 1019,3 hPa 0,0 l/m 0 min 0 min 116 W/m 12,9 km/h (3 Bft) 95,74 %
27.06.2022 19:34 17,4 C 17,2 C 12,8 C 88 % 1019,3 hPa 0,0 l/m 0 min 0 min 113 W/m 6,4 km/h (2 Bft) 97,87 %
27.06.2022 19:36 17,5 C 17,2 C 12,8 C 88 % 1019,4 hPa 0,0 l/m 0 min 0 min 102 W/m 6,4 km/h (2 Bft) 97,87 %
27.06.2022 19:38 17,5 C 17,2 C 12,8 C 88 % 1019,4 hPa 0,0 l/m 0 min 0 min 131 W/m 6,4 km/h (2 Bft) 97,87 %
27.06.2022 19:40 17,5 C 17,2 C 12,8 C 88 % 1019,5 hPa 0,0 l/m 0 min 0 min 138 W/m 12,9 km/h (3 Bft) 97,83 %
27.06.2022 19:42 17,5 C 17,2 C 12,8 C 88 % 1019,5 hPa 0,0 l/m 2 min 0 min 238 W/m 6,4 km/h (2 Bft) 97,87 %
27.06.2022 19:44 17,6 C 17,8 C 12,8 C 88 % 1019,6 hPa 0,0 l/m 2 min 0 min 341 W/m 9,7 km/h (2 Bft) 97,87 %
27.06.2022 19:46 17,6 C 17,8 C 12,8 C 88 % 1019,7 hPa 0,0 l/m 2 min 0 min 313 W/m 6,4 km/h (2 Bft) 97,87 %
27.06.2022 19:48 17,7 C 17,8 C 12,8 C 88 % 1019,7 hPa 0,0 l/m 2 min 0 min 279 W/m 6,4 km/h (2 Bft) 97,87 %
27.06.2022 19:50 17,7 C 17,8 C 12,8 C 87 % 1019,8 hPa 0,0 l/m 2 min 0 min 247 W/m 6,4 km/h (2 Bft) 97,87 %
27.06.2022 19:52 17,8 C 17,8 C 12,8 C 88 % 1019,7 hPa 0,0 l/m 2 min 0 min 287 W/m 6,4 km/h (2 Bft) 97,83 %
27.06.2022 19:54 17,8 C 17,8 C 12,8 C 87 % 1019,7 hPa 0,0 l/m 2 min 0 min 302 W/m 3,2 km/h (1 Bft) 97,87 %
27.06.2022 19:56 17,9 C 17,8 C 13,3 C 87 % 1019,7 hPa 0,0 l/m 2 min 0 min 230 W/m 6,4 km/h (2 Bft) 97,87 %
27.06.2022 19:58 17,9 C 17,8 C 13,3 C 87 % 1019,8 hPa 0,0 l/m 2 min 0 min 207 W/m 6,4 km/h (2 Bft) 97,87 %
27.06.2022 20:00 17,9 C 17,8 C 12,8 C 87 % 1019,8 hPa 0,0 l/m 2 min 0 min 188 W/m 12,9 km/h (3 Bft) 97,87 %
27.06.2022 20:02 17,9 C 17,2 C 12,8 C 86 % 1019,8 hPa 0,0 l/m 2 min 0 min 139 W/m 12,9 km/h (3 Bft) 97,87 %
27.06.2022 20:04 17,8 C 17,2 C 12,8 C 86 % 1019,9 hPa 0,0 l/m 0 min 0 min 85 W/m 12,9 km/h (3 Bft) 95,65 %
27.06.2022 20:06 17,8 C 17,2 C 12,8 C 86 % 1020,0 hPa 0,0 l/m 0 min 0 min 55 W/m 6,4 km/h (2 Bft) 95,74 %
27.06.2022 20:08 17,8 C 17,2 C 12,8 C 86 % 1020,0 hPa 0,0 l/m 0 min 0 min 51 W/m 12,9 km/h (3 Bft) 97,87 %
27.06.2022 20:10 17,8 C 17,2 C 12,8 C 85 % 1019,9 hPa 0,0 l/m 0 min 0 min 48 W/m 9,7 km/h (2 Bft) 97,87 %
27.06.2022 20:12 17,8 C 17,2 C 12,8 C 85 % 1019,8 hPa 0,0 l/m 0 min 0 min 46 W/m 6,4 km/h (2 Bft) 97,87 %
27.06.2022 20:14 17,8 C 17,2 C 12,8 C 86 % 1019,9 hPa 0,0 l/m 0 min 0 min 43 W/m 3,2 km/h (1 Bft) 97,87 %
27.06.2022 20:16 17,8 C 17,2 C 12,8 C 86 % 1019,9 hPa 0,0 l/m 0 min 0 min 42 W/m 12,9 km/h (3 Bft) 97,83 %
27.06.2022 20:18 17,7 C 17,2 C 12,8 C 86 % 1020,0 hPa 0,0 l/m 0 min 0 min 42 W/m 12,9 km/h (3 Bft) 97,87 %
27.06.2022 20:20 17,7 C 17,2 C 12,8 C 86 % 1019,9 hPa 0,0 l/m 0 min 0 min 42 W/m 6,4 km/h (2 Bft) 97,87 %
27.06.2022 20:22 17,7 C 17,2 C 12,8 C 85 % 1019,9 hPa 0,0 l/m 0 min 0 min 41 W/m 6,4 km/h (2 Bft) 97,87 %
27.06.2022 20:24 17,7 C 17,2 C 12,8 C 86 % 1020,0 hPa 0,0 l/m 0 min 0 min 40 W/m 6,4 km/h (2 Bft) 100,00 %
27.06.2022 20:26 17,7 C 17,2 C 12,8 C 86 % 1020,0 hPa 0,0 l/m 0 min 0 min 40 W/m 3,2 km/h (1 Bft) 100,00 %
27.06.2022 20:28 17,6 C 17,2 C 12,8 C 85 % 1020,0 hPa 0,0 l/m 0 min 0 min 39 W/m 6,4 km/h (2 Bft) 100,00 %
27.06.2022 20:30 17,7 C 17,2 C 12,8 C 86 % 1019,9 hPa 0,0 l/m 0 min 0 min 38 W/m 3,2 km/h (1 Bft) 100,00 %
27.06.2022 20:32 17,7 C 17,2 C 12,8 C 86 % 1020,0 hPa 0,0 l/m 0 min 0 min 35 W/m 6,4 km/h (2 Bft) 100,00 %
27.06.2022 20:34 17,7 C 17,2 C 12,8 C 86 % 1019,9 hPa 0,0 l/m 0 min 0 min 34 W/m 6,4 km/h (2 Bft) 100,00 %
27.06.2022 20:36 17,7 C 17,2 C 12,8 C 86 % 1019,8 hPa 0,0 l/m 0 min 0 min 33 W/m 6,4 km/h (2 Bft) 97,87 %
27.06.2022 20:38 17,7 C 17,2 C 12,8 C 86 % 1019,9 hPa 0,0 l/m 0 min 0 min 33 W/m 6,4 km/h (2 Bft) 97,87 %
27.06.2022 20:40 17,8 C 17,2 C 12,8 C 86 % 1020,0 hPa 0,0 l/m 0 min 0 min 32 W/m 3,2 km/h (1 Bft) 95,65 %
27.06.2022 20:42 17,8 C 17,2 C 12,8 C 86 % 1020,0 hPa 0,0 l/m 0 min 0 min 31 W/m 6,4 km/h (2 Bft) 95,74 %
27.06.2022 20:44 17,8 C 17,2 C 12,8 C 85 % 1020,1 hPa 0,0 l/m 0 min 0 min 30 W/m 9,7 km/h (2 Bft) 93,62 %
27.06.2022 20:46 17,7 C 17,2 C 12,8 C 85 % 1020,1 hPa 0,0 l/m 0 min 0 min 28 W/m 12,9 km/h (3 Bft) 97,87 %
27.06.2022 20:48 17,8 C 17,2 C 12,8 C 85 % 1020,1 hPa 0,0 l/m 0 min 0 min 28 W/m 3,2 km/h (1 Bft) 95,74 %
27.06.2022 20:50 17,8 C 17,2 C 12,8 C 85 % 1020,1 hPa 0,0 l/m 0 min 0 min 26 W/m 6,4 km/h (2 Bft) 95,74 %
27.06.2022 20:52 17,8 C 17,2 C 12,8 C 85 % 1020,1 hPa 0,0 l/m 0 min 0 min 25 W/m 6,4 km/h (2 Bft) 93,48 %
27.06.2022 20:54 17,8 C 17,2 C 12,8 C 85 % 1020,1 hPa 0,0 l/m 0 min 0 min 25 W/m 3,2 km/h (1 Bft) 95,74 %
27.06.2022 20:56 17,8 C 17,2 C 12,8 C 85 % 1020,1 hPa 0,0 l/m 0 min 0 min 23 W/m 3,2 km/h (1 Bft) 93,62 %
27.06.2022 20:58 17,8 C 17,2 C 12,8 C 84 % 1020,0 hPa 0,0 l/m 0 min 0 min 23 W/m 3,2 km/h (1 Bft) 93,62 %
27.06.2022 21:00 17,9 C 17,2 C 12,8 C 84 % 1020,0 hPa 0,0 l/m 0 min 0 min 21 W/m 3,2 km/h (1 Bft) 95,74 %
27.06.2022 21:02 17,9 C 17,2 C 12,8 C 84 % 1020,1 hPa 0,0 l/m 0 min 0 min 21 W/m 3,2 km/h (1 Bft) 95,74 %
27.06.2022 21:04 17,9 C 16,7 C 12,8 C 84 % 1020,1 hPa 0,0 l/m 0 min 0 min 21 W/m 3,2 km/h (1 Bft) 93,48 %
27.06.2022 21:06 17,8 C 16,7 C 12,8 C 84 % 1020,1 hPa 0,0 l/m 0 min 0 min 19 W/m 3,2 km/h (1 Bft) 95,74 %
27.06.2022 21:08 17,8 C 16,7 C 12,8 C 84 % 1020,2 hPa 0,0 l/m 0 min 0 min 19 W/m 0,0 km/h (0 Bft) 95,74 %
27.06.2022 21:10 17,8 C 16,7 C 12,8 C 85 % 1020,2 hPa 0,0 l/m 0 min 0 min 18 W/m 0,0 km/h (0 Bft) 93,62 %
27.06.2022 21:12 17,8 C 16,7 C 12,8 C 85 % 1020,1 hPa 0,0 l/m 0 min 0 min 18 W/m 0,0 km/h (0 Bft) 95,74 %
27.06.2022 21:14 17,8 C 16,7 C 12,8 C 85 % 1020,1 hPa 0,0 l/m 0 min 0 min 17 W/m 0,0 km/h (0 Bft) 95,74 %
27.06.2022 21:16 17,8 C 16,7 C 12,8 C 85 % 1020,1 hPa 0,0 l/m 0 min 0 min 16 W/m 3,2 km/h (1 Bft) 97,83 %
27.06.2022 21:18 17,8 C 16,7 C 12,8 C 85 % 1020,2 hPa 0,0 l/m 0 min 0 min 16 W/m 3,2 km/h (1 Bft) 97,87 %
27.06.2022 21:20 17,8 C 16,7 C 12,8 C 85 % 1020,1 hPa 0,0 l/m 0 min 0 min 14 W/m 3,2 km/h (1 Bft) 97,87 %
27.06.2022 21:22 17,8 C 16,7 C 12,8 C 84 % 1020,1 hPa 0,0 l/m 0 min 0 min 14 W/m 3,2 km/h (1 Bft) 100,00 %
27.06.2022 21:24 17,7 C 16,7 C 12,8 C 85 % 1020,2 hPa 0,0 l/m 0 min 0 min 13 W/m 0,0 km/h (0 Bft) 100,00 %
27.06.2022 21:26 17,7 C 16,7 C 12,8 C 85 % 1020,1 hPa 0,0 l/m 0 min 0 min 12 W/m 3,2 km/h (1 Bft) 100,00 %
27.06.2022 21:28 17,6 C 16,7 C 12,8 C 85 % 1020,2 hPa 0,0 l/m 0 min 0 min 12 W/m 3,2 km/h (1 Bft) 100,00 %
27.06.2022 21:30 17,6 C 16,7 C 12,8 C 85 % 1020,3 hPa 0,0 l/m 0 min 0 min 12 W/m 6,4 km/h (2 Bft) 97,87 %
27.06.2022 21:32 17,5 C 16,7 C 12,8 C 85 % 1020,3 hPa 0,0 l/m 0 min 0 min 11 W/m 3,2 km/h (1 Bft) 97,87 %
27.06.2022 21:34 17,5 C 16,7 C 12,8 C 85 % 1020,3 hPa 0,0 l/m 0 min 0 min 11 W/m 3,2 km/h (1 Bft) 100,00 %
27.06.2022 21:36 17,4 C 16,1 C 12,8 C 85 % 1020,3 hPa 0,0 l/m 0 min 0 min 11 W/m 3,2 km/h (1 Bft) 97,87 %
27.06.2022 21:38 17,4 C 16,1 C 12,8 C 85 % 1020,3 hPa 0,0 l/m 0 min 0 min 9 W/m 3,2 km/h (1 Bft) 100,00 %
27.06.2022 21:40 17,3 C 16,1 C 12,8 C 85 % 1020,4 hPa 0,0 l/m 0 min 0 min 9 W/m 3,2 km/h (1 Bft) 100,00 %
27.06.2022 21:42 17,3 C 16,1 C 12,8 C 86 % 1020,3 hPa 0,0 l/m 0 min 0 min 8 W/m 0,0 km/h (0 Bft) 100,00 %
27.06.2022 21:44 17,3 C 16,1 C 12,8 C 86 % 1020,3 hPa 0,0 l/m 0 min 0 min 7 W/m 3,2 km/h (1 Bft) 100,00 %
27.06.2022 21:46 17,2 C 16,1 C 12,8 C 86 % 1020,4 hPa 0,0 l/m 0 min 0 min 7 W/m 3,2 km/h (1 Bft) 100,00 %
27.06.2022 21:48 17,2 C 16,1 C 12,2 C 86 % 1020,4 hPa 0,0 l/m 0 min 0 min 5 W/m 0,0 km/h (0 Bft) 97,87 %
27.06.2022 21:50 17,1 C 16,1 C 12,2 C 86 % 1020,4 hPa 0,0 l/m 0 min 0 min 5 W/m 3,2 km/h (1 Bft) 97,87 %
27.06.2022 21:52 17,1 C 16,1 C 12,2 C 86 % 1020,4 hPa 0,0 l/m 0 min 0 min 5 W/m 3,2 km/h (1 Bft) 100,00 %
27.06.2022 21:54 17,1 C 15,6 C 12,2 C 86 % 1020,5 hPa 0,0 l/m 0 min 0 min 3 W/m 3,2 km/h (1 Bft) 97,87 %
27.06.2022 21:56 17,0 C 15,6 C 12,2 C 86 % 1020,4 hPa 0,0 l/m 0 min 0 min 0 W/m 3,2 km/h (1 Bft) 100,00 %
27.06.2022 21:58 16,9 C 15,6 C 12,2 C 86 % 1020,4 hPa 0,0 l/m 0 min 0 min 0 W/m 3,2 km/h (1 Bft) 97,87 %
27.06.2022 22:00 16,9 C 15,6 C 12,2 C 86 % 1020,5 hPa 0,0 l/m 0 min 0 min 0 W/m 3,2 km/h (1 Bft) 100,00 %
27.06.2022 22:02 16,8 C 15,6 C 12,2 C 86 % 1020,6 hPa 0,0 l/m 0 min 0 min 0 W/m 3,2 km/h (1 Bft) 97,87 %
27.06.2022 22:04 16,8 C 15,6 C 12,2 C 86 % 1020,6 hPa 0,0 l/m 0 min 0 min 0 W/m 3,2 km/h (1 Bft) 100,00 %
27.06.2022 22:06 16,7 C 15,6 C 12,2 C 86 % 1020,7 hPa 0,0 l/m 0 min 0 min 0 W/m 3,2 km/h (1 Bft) 100,00 %
27.06.2022 22:08 16,7 C 15,6 C 12,2 C 86 % 1020,7 hPa 0,0 l/m 0 min 0 min 0 W/m 3,2 km/h (1 Bft) 97,87 %
27.06.2022 22:10 16,7 C 15,6 C 12,2 C 87 % 1020,7 hPa 0,0 l/m 0 min 0 min 0 W/m 3,2 km/h (1 Bft) 100,00 %
27.06.2022 22:12 16,6 C 15,6 C 12,2 C 87 % 1020,7 hPa 0,0 l/m 0 min 0 min 0 W/m 3,2 km/h (1 Bft) 100,00 %
27.06.2022 22:14 16,6 C 15,6 C 12,2 C 87 % 1020,8 hPa 0,0 l/m 0 min 0 min 0 W/m 3,2 km/h (1 Bft) 100,00 %
27.06.2022 22:16 16,5 C 15,6 C 12,2 C 87 % 1020,8 hPa 0,0 l/m 0 min 0 min 0 W/m 3,2 km/h (1 Bft) 100,00 %
27.06.2022 22:18 16,4 C 15,0 C 12,2 C 87 % 1020,8 hPa 0,0 l/m 0 min 0 min 0 W/m 3,2 km/h (1 Bft) 93,62 %
27.06.2022 22:20 16,4 C 15,0 C 12,2 C 87 % 1020,8 hPa 0,0 l/m 0 min 0 min 0 W/m 3,2 km/h (1 Bft) 97,87 %
27.06.2022 22:22 16,3 C 15,0 C 12,2 C 87 % 1020,9 hPa 0,0 l/m 0 min 0 min 0 W/m 3,2 km/h (1 Bft) 95,74 %
27.06.2022 22:24 16,3 C 15,0 C 11,7 C 87 % 1020,8 hPa 0,0 l/m 0 min 0 min 0 W/m 0,0 km/h (0 Bft) 97,87 %
27.06.2022 22:26 16,3 C 15,0 C 11,7 C 87 % 1020,9 hPa 0,0 l/m 0 min 0 min 0 W/m 0,0 km/h (0 Bft) 97,87 %
27.06.2022 22:28 16,2 C 15,0 C 11,7 C 87 % 1020,9 hPa 0,0 l/m 0 min 0 min 0 W/m 3,2 km/h (1 Bft) 95,65 %
27.06.2022 22:30 16,2 C 15,0 C 11,7 C 88 % 1020,9 hPa 0,0 l/m 0 min 0 min 0 W/m 0,0 km/h (0 Bft) 97,87 %
27.06.2022 22:32 16,2 C 15,0 C 11,7 C 88 % 1020,9 hPa 0,0 l/m 0 min 0 min 0 W/m 0,0 km/h (0 Bft) 95,74 %
27.06.2022 22:34 16,2 C 15,0 C 11,7 C 88 % 1021,0 hPa 0,0 l/m 0 min 0 min 0 W/m 0,0 km/h (0 Bft) 97,87 %
27.06.2022 22:36 16,2 C 15,0 C 11,1 C 88 % 1021,0 hPa 0,0 l/m 0 min 0 min 0 W/m 0,0 km/h (0 Bft) 95,74 %
27.06.2022 22:38 16,1 C 14,4 C 11,1 C 88 % 1021,1 hPa 0,0 l/m 0 min 0 min 0 W/m 0,0 km/h (0 Bft) 95,74 %
27.06.2022 22:40 16,1 C 14,4 C 11,1 C 88 % 1021,1 hPa 0,0 l/m 0 min 0 min 0 W/m 0,0 km/h (0 Bft) 95,65 %
27.06.2022 22:42 16,1 C 14,4 C 11,1 C 88 % 1021,0 hPa 0,0 l/m 0 min 0 min 0 W/m 0,0 km/h (0 Bft) 95,74 %
27.06.2022 22:44 16,0 C 14,4 C 11,1 C 88 % 1021,0 hPa 0,0 l/m 0 min 0 min 0 W/m 0,0 km/h (0 Bft) 95,74 %
27.06.2022 22:46 15,9 C 14,4 C 11,1 C 88 % 1021,0 hPa 0,0 l/m 0 min 0 min 0 W/m 0,0 km/h (0 Bft) 95,74 %
27.06.2022 22:48 15,9 C 14,4 C 11,1 C 89 % 1021,0 hPa 0,0 l/m 0 min 0 min 0 W/m 0,0 km/h (0 Bft) 95,74 %
27.06.2022 22:50 15,8 C 14,4 C 10,6 C 89 % 1021,1 hPa 0,0 l/m 0 min 0 min 0 W/m 0,0 km/h (0 Bft) 93,62 %
27.06.2022 22:52 15,8 C 14,4 C 11,1 C 89 % 1021,1 hPa 0,0 l/m 0 min 0 min 0 W/m 3,2 km/h (1 Bft) 95,65 %
27.06.2022 22:54 15,7 C 14,4 C 11,1 C 89 % 1021,1 hPa 0,0 l/m 0 min 0 min 0 W/m 0,0 km/h (0 Bft) 95,74 %
27.06.2022 22:56 15,7 C 14,4 C 11,1 C 89 % 1021,1 hPa 0,0 l/m 0 min 0 min 0 W/m 0,0 km/h (0 Bft) 95,74 %
27.06.2022 22:58 15,6 C 14,4 C 11,1 C 89 % 1021,1 hPa 0,0 l/m 0 min 0 min 0 W/m 0,0 km/h (0 Bft) 95,74 %
27.06.2022 23:00 15,6 C 14,4 C 11,1 C 89 % 1021,1 hPa 0,0 l/m 0 min 0 min 0 W/m 0,0 km/h (0 Bft) 97,87 %
27.06.2022 23:02 15,6 C 14,4 C 11,1 C 89 % 1021,1 hPa 0,0 l/m 0 min 0 min 0 W/m 0,0 km/h (0 Bft) 100,00 %
27.06.2022 23:04 15,6 C 14,4 C 11,1 C 90 % 1021,1 hPa 0,0 l/m 0 min 0 min 0 W/m 0,0 km/h (0 Bft) 100,00 %
27.06.2022 23:06 15,5 C 14,4 C 11,1 C 90 % 1021,0 hPa 0,0 l/m 0 min 0 min 0 W/m 0,0 km/h (0 Bft) 100,00 %
27.06.2022 23:08 15,5 C 14,4 C 11,1 C 90 % 1021,0 hPa 0,0 l/m 0 min 0 min 0 W/m 0,0 km/h (0 Bft) 97,87 %
27.06.2022 23:10 15,5 C 14,4 C 11,1 C 90 % 1021,1 hPa 0,0 l/m 0 min 0 min 0 W/m 0,0 km/h (0 Bft) 100,00 %
27.06.2022 23:12 15,4 C 14,4 C 11,1 C 90 % 1021,0 hPa 0,0 l/m 0 min 0 min 0 W/m 0,0 km/h (0 Bft) 100,00 %
27.06.2022 23:14 15,4 C 14,4 C 11,1 C 89 % 1021,1 hPa 0,0 l/m 0 min 0 min 0 W/m 0,0 km/h (0 Bft) 100,00 %
27.06.2022 23:16 15,4 C 14,4 C 11,1 C 90 % 1021,1 hPa 0,0 l/m 0 min 0 min 0 W/m 3,2 km/h (1 Bft) 100,00 %
27.06.2022 23:18 15,4 C 14,4 C 11,1 C 90 % 1021,1 hPa 0,0 l/m 0 min 0 min 0 W/m 3,2 km/h (1 Bft) 100,00 %
27.06.2022 23:20 15,4 C 14,4 C 11,1 C 90 % 1021,1 hPa 0,0 l/m 0 min 0 min 0 W/m 3,2 km/h (1 Bft) 100,00 %
27.06.2022 23:22 15,4 C 14,4 C 11,1 C 90 % 1021,1 hPa 0,0 l/m 0 min 0 min 0 W/m 0,0 km/h (0 Bft) 100,00 %
27.06.2022 23:24 15,4 C 14,4 C 11,1 C 90 % 1021,1 hPa 0,0 l/m 0 min 0 min 0 W/m 0,0 km/h (0 Bft) 100,00 %
27.06.2022 23:26 15,3 C 14,4 C 11,1 C 90 % 1021,1 hPa 0,0 l/m 0 min 0 min 0 W/m 0,0 km/h (0 Bft) 97,83 %
27.06.2022 23:28 15,3 C 14,4 C 11,1 C 90 % 1021,1 hPa 0,0 l/m 0 min 0 min 0 W/m 0,0 km/h (0 Bft) 97,87 %
27.06.2022 23:30 15,3 C 14,4 C 10,6 C 90 % 1021,1 hPa 0,0 l/m 0 min 0 min 0 W/m 0,0 km/h (0 Bft) 100,00 %
27.06.2022 23:32 15,3 C 14,4 C 10,6 C 90 % 1021,1 hPa 0,0 l/m 0 min 0 min 0 W/m 0,0 km/h (0 Bft) 100,00 %
27.06.2022 23:34 15,3 C 14,4 C 10,6 C 90 % 1021,1 hPa 0,0 l/m 0 min 0 min 0 W/m 0,0 km/h (0 Bft) 100,00 %
27.06.2022 23:36 15,3 C 13,9 C 10,6 C 90 % 1021,1 hPa 0,0 l/m 0 min 0 min 0 W/m 0,0 km/h (0 Bft) 100,00 %
27.06.2022 23:38 15,3 C 13,9 C 10,6 C 90 % 1021,2 hPa 0,0 l/m 0 min 0 min 0 W/m 0,0 km/h (0 Bft) 100,00 %
27.06.2022 23:40 15,2 C 13,9 C 10,6 C 90 % 1021,2 hPa 0,0 l/m 0 min 0 min 0 W/m 0,0 km/h (0 Bft) 100,00 %
27.06.2022 23:42 15,2 C 13,9 C 10,6 C 90 % 1021,1 hPa 0,0 l/m 0 min 0 min 0 W/m 0,0 km/h (0 Bft) 100,00 %
27.06.2022 23:44 15,2 C 13,9 C 10,6 C 90 % 1021,1 hPa 0,0 l/m 0 min 0 min 0 W/m 0,0 km/h (0 Bft) 97,87 %
27.06.2022 23:46 15,2 C 13,9 C 10,6 C 90 % 1021,2 hPa 0,0 l/m 0 min 0 min 0 W/m 3,2 km/h (1 Bft) 97,87 %
27.06.2022 23:48 15,1 C 13,9 C 10,6 C 90 % 1021,2 hPa 0,0 l/m 0 min 0 min 0 W/m 0,0 km/h (0 Bft) 97,87 %
27.06.2022 23:50 15,1 C 13,9 C 10,6 C 90 % 1021,2 hPa 0,0 l/m 0 min 0 min 0 W/m 3,2 km/h (1 Bft) 95,65 %
27.06.2022 23:52 15,1 C 13,9 C 10,6 C 90 % 1021,2 hPa 0,0 l/m 0 min 0 min 0 W/m 6,4 km/h (2 Bft) 100,00 %
27.06.2022 23:54 15,0 C 13,9 C 10,6 C 90 % 1021,2 hPa 0,0 l/m 0 min 0 min 0 W/m 3,2 km/h (1 Bft) 97,87 %
27.06.2022 23:56 15,0 C 13,9 C 10,6 C 90 % 1021,2 hPa 0,0 l/m 0 min 0 min 0 W/m 3,2 km/h (1 Bft) 97,87 %
27.06.2022 23:58 14,9 C 13,9 C 10,6 C 90 % 1021,2 hPa 0,0 l/m 0 min 0 min 0 W/m 0,0 km/h (0 Bft) 97,87 %
_ Min-Zeit 23:58 16:34 16:36 15:40 07:38 - - - - 00:00 08:22
Minimum _ 14,9 C 13,9 C 10,6 C 62 % 1013,3 hPa - - - - 0,0 km/h (0 Bft) 72,34 %
_ Max-Zeit 15:56 15:46 15:30 17:00 23:38 16:28 07:46 00:48 15:42 16:40 00:00
Maximum _ 23,6 C 26,1 C 19,4 C 95 % 1021,2 hPa 1,0 l/m 2 min 2 min 812 W/m 32,2 km/h
N-NW (5 Bft)
100,00 %
Durchschnitt _ 18,3 C 17,9 C 14,1 C 86 % 1016,8 hPa #5,0 l/m #2:08 h #36 min. 185 W/m 5,2 km/h (1 Bft) 97,66 %
© 2022 W. Hausmann